Wetterdaten: Samstag, 19.11.2016
Datum Zeit Temp. A. Feuchte A. Luftdruck Regen Wind Richtung Richtung Sonnenschein ET UV Solar Taupunkt Windchill Windben Empfang
19.11.2016 00:00 4,8 C 99 % 1013,6 hPa 0,0 l/m 1,0 km/h (0 Bft) S-SW 213 0 min 0,000 mm 0,0 UV-I 0 W/m 4,7 C 4,8 C 1,6 km/h (1 Bft) 97,87 %
19.11.2016 00:02 4,8 C 99 % 1013,7 hPa 0,0 l/m 1,4 km/h (1 Bft) S-SW 213 0 min 0,000 mm 0,0 UV-I 0 W/m 4,7 C 4,8 C 3,2 km/h (1 Bft) 100,00 %
19.11.2016 00:04 4,8 C 99 % 1013,7 hPa 0,0 l/m 1,4 km/h (1 Bft) S-SW 213 0 min 0,000 mm 0,0 UV-I 0 W/m 4,7 C 4,8 C 3,2 km/h (1 Bft) 100,00 %
19.11.2016 00:06 4,8 C 99 % 1013,7 hPa 0,0 l/m 1,2 km/h (1 Bft) S-SW 213 0 min 0,000 mm 0,0 UV-I 0 W/m 4,7 C 4,8 C 3,2 km/h (1 Bft) 100,00 %
19.11.2016 00:08 4,8 C 99 % 1013,8 hPa 0,0 l/m 1,3 km/h (1 Bft) S-SW 211 0 min 0,000 mm 0,0 UV-I 0 W/m 4,7 C 4,8 C 3,2 km/h (1 Bft) 98,21 %
19.11.2016 00:10 4,9 C 99 % 1013,9 hPa 0,0 l/m 1,2 km/h (1 Bft) S-SW 194 0 min 0,000 mm 0,0 UV-I 0 W/m 4,8 C 4,9 C 3,2 km/h (1 Bft) 100,00 %
19.11.2016 00:12 5,0 C 99 % 1013,9 hPa 0,0 l/m 1,2 km/h (1 Bft) S 179 0 min 0,000 mm 0,0 UV-I 0 W/m 4,9 C 5,0 C 3,2 km/h (1 Bft) 100,00 %
19.11.2016 00:14 5,2 C 99 % 1013,9 hPa 0,0 l/m 2,5 km/h (1 Bft) S 180 0 min 0,000 mm 0,0 UV-I 0 W/m 5,1 C 5,2 C 6,4 km/h (2 Bft) 100,00 %
19.11.2016 00:16 5,2 C 99 % 1013,9 hPa 0,0 l/m 3,1 km/h (1 Bft) S 179 0 min 0,000 mm 0,0 UV-I 0 W/m 5,1 C 5,2 C 4,8 km/h (1 Bft) 100,00 %
19.11.2016 00:18 5,3 C 99 % 1013,9 hPa 0,0 l/m 3,7 km/h (1 Bft) S 186 0 min 0,000 mm 0,0 UV-I 0 W/m 5,2 C 5,3 C 6,4 km/h (2 Bft) 100,00 %
19.11.2016 00:20 5,4 C 99 % 1013,9 hPa 0,0 l/m 3,6 km/h (1 Bft) S 191 0 min 0,000 mm 0,0 UV-I 0 W/m 5,3 C 5,4 C 6,4 km/h (2 Bft) 98,11 %
19.11.2016 00:22 5,4 C 99 % 1014,0 hPa 0,0 l/m 3,6 km/h (1 Bft) S-SW 192 0 min 0,000 mm 0,0 UV-I 0 W/m 5,3 C 5,4 C 4,8 km/h (1 Bft) 100,00 %
19.11.2016 00:24 5,4 C 99 % 1014,0 hPa 0,0 l/m 3,6 km/h (1 Bft) S 178 0 min 0,000 mm 0,0 UV-I 0 W/m 5,3 C 5,4 C 6,4 km/h (2 Bft) 100,00 %
19.11.2016 00:26 5,5 C 99 % 1013,9 hPa 0,0 l/m 2,8 km/h (1 Bft) S-SW 192 0 min 0,000 mm 0,0 UV-I 0 W/m 5,4 C 5,5 C 6,4 km/h (2 Bft) 100,00 %
19.11.2016 00:28 5,5 C 99 % 1013,8 hPa 0,0 l/m 2,2 km/h (1 Bft) S 173 0 min 0,000 mm 0,0 UV-I 0 W/m 5,4 C 5,5 C 4,8 km/h (1 Bft) 97,87 %
19.11.2016 00:30 5,6 C 99 % 1013,9 hPa 0,0 l/m 2,2 km/h (1 Bft) S 172 0 min 0,000 mm 0,0 UV-I 0 W/m 5,5 C 5,6 C 4,8 km/h (1 Bft) 100,00 %
19.11.2016 00:32 5,6 C 99 % 1013,9 hPa 0,0 l/m 2,0 km/h (1 Bft) S 171 0 min 0,000 mm 0,0 UV-I 0 W/m 5,5 C 5,6 C 3,2 km/h (1 Bft) 100,00 %
19.11.2016 00:34 5,6 C 99 % 1013,9 hPa 0,0 l/m 2,7 km/h (1 Bft) S 171 0 min 0,000 mm 0,0 UV-I 0 W/m 5,5 C 5,6 C 6,4 km/h (2 Bft) 100,00 %
19.11.2016 00:36 5,6 C 99 % 1013,9 hPa 0,0 l/m 3,0 km/h (1 Bft) S 186 0 min 0,000 mm 0,0 UV-I 0 W/m 5,5 C 5,6 C 6,4 km/h (2 Bft) 96,36 %
19.11.2016 00:38 5,6 C 99 % 1013,9 hPa 0,0 l/m 3,4 km/h (1 Bft) S 180 0 min 0,000 mm 0,0 UV-I 0 W/m 5,5 C 5,6 C 6,4 km/h (2 Bft) 100,00 %
19.11.2016 00:40 5,7 C 99 % 1013,8 hPa 0,0 l/m 2,8 km/h (1 Bft) S 188 0 min 0,000 mm 0,0 UV-I 0 W/m 5,6 C 5,7 C 6,4 km/h (2 Bft) 100,00 %
19.11.2016 00:42 5,7 C 99 % 1013,8 hPa 0,0 l/m 4,3 km/h (1 Bft) S 169 0 min 0,000 mm 0,0 UV-I 0 W/m 5,6 C 5,7 C 8,0 km/h (2 Bft) 100,00 %
19.11.2016 00:44 5,7 C 99 % 1013,8 hPa 0,0 l/m 4,8 km/h (1 Bft) S 180 0 min 0,000 mm 0,0 UV-I 0 W/m 5,6 C 5,7 C 8,0 km/h (2 Bft) 100,00 %
19.11.2016 00:46 5,7 C 99 % 1013,9 hPa 0,0 l/m 4,4 km/h (1 Bft) S 179 0 min 0,000 mm 0,0 UV-I 0 W/m 5,6 C 5,7 C 8,0 km/h (2 Bft) 100,00 %
19.11.2016 00:48 5,8 C 99 % 1013,8 hPa 0,0 l/m 4,1 km/h (1 Bft) S 175 0 min 0,000 mm 0,0 UV-I 0 W/m 5,7 C 5,8 C 8,0 km/h (2 Bft) 98,21 %
19.11.2016 00:50 5,8 C 99 % 1013,8 hPa 0,0 l/m 4,1 km/h (1 Bft) S 185 0 min 0,000 mm 0,0 UV-I 0 W/m 5,7 C 5,8 C 8,0 km/h (2 Bft) 97,73 %
19.11.2016 00:52 5,8 C 99 % 1013,7 hPa 0,0 l/m 3,4 km/h (1 Bft) S-SO 165 0 min 0,000 mm 0,0 UV-I 0 W/m 5,7 C 5,8 C 8,0 km/h (2 Bft) 100,00 %
19.11.2016 00:54 5,8 C 99 % 1013,7 hPa 0,0 l/m 3,3 km/h (1 Bft) S 169 0 min 0,000 mm 0,0 UV-I 0 W/m 5,7 C 5,8 C 6,4 km/h (2 Bft) 100,00 %
19.11.2016 00:56 5,8 C 99 % 1013,8 hPa 0,0 l/m 4,0 km/h (1 Bft) S-SO 160 0 min 0,000 mm 0,0 UV-I 0 W/m 5,7 C 5,8 C 6,4 km/h (2 Bft) 98,00 %
19.11.2016 00:58 5,9 C 99 % 1013,8 hPa 0,0 l/m 4,1 km/h (1 Bft) S-SO 161 0 min 0,000 mm 0,0 UV-I 0 W/m 5,8 C 5,9 C 8,0 km/h (2 Bft) 100,00 %
19.11.2016 01:00 5,9 C 99 % 1013,8 hPa 0,0 l/m 3,5 km/h (1 Bft) S-SO 168 0 min 0,000 mm 0,0 UV-I 0 W/m 5,8 C 5,9 C 8,0 km/h (2 Bft) 100,00 %
19.11.2016 01:02 5,9 C 99 % 1013,8 hPa 0,0 l/m 5,3 km/h (1 Bft) S-SW 202 0 min 0,000 mm 0,0 UV-I 0 W/m 5,8 C 5,9 C 8,0 km/h (2 Bft) 100,00 %
19.11.2016 01:04 5,9 C 99 % 1013,9 hPa 0,0 l/m 5,6 km/h (1 Bft) S 186 0 min 0,000 mm 0,0 UV-I 0 W/m 5,8 C 5,9 C 8,0 km/h (2 Bft) 100,00 %
19.11.2016 01:06 5,9 C 99 % 1013,9 hPa 0,0 l/m 6,3 km/h (2 Bft) S-SW 200 0 min 0,000 mm 0,0 UV-I 0 W/m 5,8 C 5,9 C 8,0 km/h (2 Bft) 100,00 %
19.11.2016 01:08 5,9 C 99 % 1013,8 hPa 0,0 l/m 5,4 km/h (1 Bft) S 189 0 min 0,000 mm 0,0 UV-I 0 W/m 5,8 C 5,9 C 8,0 km/h (2 Bft) 100,00 %
19.11.2016 01:10 5,9 C 99 % 1013,7 hPa 0,0 l/m 4,0 km/h (1 Bft) S 189 0 min 0,000 mm 0,0 UV-I 0 W/m 5,8 C 5,9 C 6,4 km/h (2 Bft) 100,00 %
19.11.2016 01:12 5,9 C 99 % 1013,6 hPa 0,0 l/m 2,8 km/h (1 Bft) S 180 0 min 0,000 mm 0,0 UV-I 0 W/m 5,8 C 5,9 C 4,8 km/h (1 Bft) 100,00 %
19.11.2016 01:14 5,9 C 99 % 1013,6 hPa 0,0 l/m 3,7 km/h (1 Bft) S 169 0 min 0,000 mm 0,0 UV-I 0 W/m 5,8 C 5,9 C 8,0 km/h (2 Bft) 100,00 %
19.11.2016 01:16 5,9 C 99 % 1013,6 hPa 0,0 l/m 3,2 km/h (1 Bft) S 178 0 min 0,000 mm 0,0 UV-I 0 W/m 5,8 C 5,9 C 6,4 km/h (2 Bft) 100,00 %
19.11.2016 01:18 5,9 C 99 % 1013,6 hPa 0,0 l/m 3,5 km/h (1 Bft) S-SW 192 0 min 0,000 mm 0,0 UV-I 0 W/m 5,8 C 5,9 C 6,4 km/h (2 Bft) 97,44 %
19.11.2016 01:20 5,9 C 99 % 1013,7 hPa 0,0 l/m 1,9 km/h (1 Bft) S-SW 192 0 min 0,000 mm 0,0 UV-I 0 W/m 5,8 C 5,9 C 3,2 km/h (1 Bft) 100,00 %
19.11.2016 01:22 5,9 C 99 % 1013,7 hPa 0,0 l/m 2,7 km/h (1 Bft) S-SW 192 0 min 0,000 mm 0,0 UV-I 0 W/m 5,8 C 5,9 C 3,2 km/h (1 Bft) 100,00 %
19.11.2016 01:24 5,8 C 99 % 1013,7 hPa 0,0 l/m 2,4 km/h (1 Bft) S 177 0 min 0,000 mm 0,0 UV-I 0 W/m 5,7 C 5,8 C 4,8 km/h (1 Bft) 100,00 %
19.11.2016 01:26 5,9 C 99 % 1013,7 hPa 0,0 l/m 1,9 km/h (1 Bft) S 175 0 min 0,000 mm 0,0 UV-I 0 W/m 5,8 C 5,9 C 4,8 km/h (1 Bft) 95,12 %
19.11.2016 01:28 5,9 C 99 % 1013,7 hPa 0,0 l/m 2,8 km/h (1 Bft) S 175 0 min 0,000 mm 0,0 UV-I 0 W/m 5,8 C 5,9 C 4,8 km/h (1 Bft) 98,00 %
19.11.2016 01:30 5,9 C 99 % 1013,6 hPa 0,0 l/m 2,5 km/h (1 Bft) S 175 0 min 0,000 mm 0,0 UV-I 0 W/m 5,8 C 5,9 C 4,8 km/h (1 Bft) 98,00 %
19.11.2016 01:32 5,9 C 99 % 1013,6 hPa 0,0 l/m 2,8 km/h (1 Bft) S 175 0 min 0,000 mm 0,0 UV-I 0 W/m 5,8 C 5,9 C 4,8 km/h (1 Bft) 97,56 %
19.11.2016 01:34 5,9 C 99 % 1013,6 hPa 0,0 l/m 2,1 km/h (1 Bft) S 175 0 min 0,000 mm 0,0 UV-I 0 W/m 5,8 C 5,9 C 3,2 km/h (1 Bft) 95,74 %
19.11.2016 01:36 5,9 C 99 % 1013,6 hPa 0,0 l/m 1,6 km/h (1 Bft) S 175 0 min 0,000 mm 0,0 UV-I 0 W/m 5,8 C 5,9 C 3,2 km/h (1 Bft) 98,00 %
19.11.2016 01:38 5,8 C 99 % 1013,6 hPa 0,0 l/m 0,4 km/h (0 Bft) S 175 0 min 0,000 mm 0,0 UV-I 0 W/m 5,7 C 5,8 C 1,6 km/h (1 Bft) 98,00 %
19.11.2016 01:40 5,8 C 99 % 1013,7 hPa 0,0 l/m 0,5 km/h (0 Bft) S 175 0 min 0,000 mm 0,0 UV-I 0 W/m 5,7 C 5,8 C 1,6 km/h (1 Bft) 97,14 %
19.11.2016 01:42 5,8 C 99 % 1013,7 hPa 0,0 l/m 1,2 km/h (1 Bft) S 175 0 min 0,000 mm 0,0 UV-I 0 W/m 5,7 C 5,8 C 1,6 km/h (1 Bft) 98,11 %
19.11.2016 01:44 5,8 C 99 % 1013,6 hPa 0,0 l/m 1,4 km/h (1 Bft) S 175 0 min 0,000 mm 0,0 UV-I 0 W/m 5,7 C 5,8 C 3,2 km/h (1 Bft) 94,74 %
19.11.2016 01:46 5,8 C 99 % 1013,6 hPa 0,0 l/m 1,8 km/h (1 Bft) S 175 0 min 0,000 mm 0,0 UV-I 0 W/m 5,7 C 5,8 C 3,2 km/h (1 Bft) 98,11 %
19.11.2016 01:48 5,9 C 99 % 1013,7 hPa 0,0 l/m 1,5 km/h (1 Bft) S 175 0 min 0,000 mm 0,0 UV-I 0 W/m 5,8 C 5,9 C 3,2 km/h (1 Bft) 98,21 %
19.11.2016 01:50 5,9 C 99 % 1013,7 hPa 0,0 l/m 1,3 km/h (1 Bft) S 175 0 min 0,000 mm 0,0 UV-I 0 W/m 5,8 C 5,9 C 3,2 km/h (1 Bft) 95,74 %
19.11.2016 01:52 5,8 C 99 % 1013,8 hPa 0,0 l/m 0,7 km/h (0 Bft) S 175 0 min 0,000 mm 0,0 UV-I 0 W/m 5,7 C 5,8 C 1,6 km/h (1 Bft) 97,87 %
19.11.2016 01:54 5,8 C 99 % 1013,9 hPa 0,0 l/m 3,6 km/h (1 Bft) NO 47 0 min 0,000 mm 0,0 UV-I 0 W/m 5,7 C 5,8 C 6,4 km/h (2 Bft) 97,87 %
19.11.2016 01:56 5,7 C 99 % 1013,9 hPa 0,0 l/m 4,0 km/h (1 Bft) NO 46 0 min 0,000 mm 0,0 UV-I 0 W/m 5,6 C 5,7 C 4,8 km/h (1 Bft) 97,87 %
19.11.2016 01:58 5,7 C 99 % 1013,9 hPa 0,0 l/m 4,3 km/h (1 Bft) NO 45 0 min 0,000 mm 0,0 UV-I 0 W/m 5,6 C 5,7 C 6,4 km/h (2 Bft) 95,74 %
19.11.2016 02:00 5,7 C 99 % 1013,9 hPa 0,0 l/m 5,5 km/h (1 Bft) NO 44 0 min 0,000 mm 0,0 UV-I 0 W/m 5,6 C 5,7 C 6,4 km/h (2 Bft) 100,00 %
19.11.2016 02:02 5,7 C 99 % 1013,8 hPa 0,0 l/m 6,6 km/h (2 Bft) N-NO 28 0 min 0,000 mm 0,0 UV-I 0 W/m 5,6 C 5,6 C 9,7 km/h (2 Bft) 100,00 %
19.11.2016 02:04 5,6 C 99 % 1013,7 hPa 0,0 l/m 7,8 km/h (2 Bft) N-NO 14 0 min 0,000 mm 0,0 UV-I 0 W/m 5,5 C 4,4 C 11,3 km/h (2 Bft) 100,00 %
19.11.2016 02:06 5,5 C 99 % 1013,6 hPa 0,0 l/m 3,5 km/h (1 Bft) N-NO 19 0 min 0,000 mm 0,0 UV-I 0 W/m 5,4 C 5,5 C 8,0 km/h (2 Bft) 98,11 %
19.11.2016 02:08 5,4 C 99 % 1013,7 hPa 0,0 l/m 1,7 km/h (1 Bft) N 10 0 min 0,000 mm 0,0 UV-I 0 W/m 5,3 C 5,4 C 4,8 km/h (1 Bft) 96,00 %
19.11.2016 02:10 5,3 C 99 % 1013,7 hPa 0,0 l/m 3,8 km/h (1 Bft) NO 40 0 min 0,000 mm 0,0 UV-I 0 W/m 5,2 C 5,3 C 6,4 km/h (2 Bft) 97,87 %
19.11.2016 02:12 5,3 C 99 % 1013,8 hPa 0,0 l/m 7,9 km/h (2 Bft) NO 44 0 min 0,000 mm 0,0 UV-I 0 W/m 5,2 C 4,0 C 11,3 km/h (2 Bft) 100,00 %
19.11.2016 02:14 5,2 C 99 % 1013,7 hPa 0,0 l/m 6,0 km/h (2 Bft) N-NO 28 0 min 0,000 mm 0,0 UV-I 0 W/m 5,1 C 5,2 C 9,7 km/h (2 Bft) 100,00 %
19.11.2016 02:16 5,2 C 99 % 1013,7 hPa 0,0 l/m 6,5 km/h (2 Bft) N-NO 30 0 min 0,000 mm 0,0 UV-I 0 W/m 5,1 C 5,1 C 8,0 km/h (2 Bft) 98,11 %
19.11.2016 02:18 5,1 C 99 % 1013,7 hPa 0,0 l/m 7,0 km/h (2 Bft) N-NO 24 0 min 0,000 mm 0,0 UV-I 0 W/m 5,0 C 4,6 C 9,7 km/h (2 Bft) 100,00 %
19.11.2016 02:20 5,1 C 99 % 1013,6 hPa 0,0 l/m 6,6 km/h (2 Bft) NO 35 0 min 0,000 mm 0,0 UV-I 0 W/m 5,0 C 4,9 C 9,7 km/h (2 Bft) 100,00 %
19.11.2016 02:22 5,1 C 99 % 1013,6 hPa 0,0 l/m 7,2 km/h (2 Bft) N-NO 24 0 min 0,000 mm 0,0 UV-I 0 W/m 5,0 C 4,4 C 9,7 km/h (2 Bft) 100,00 %
19.11.2016 02:24 5,1 C 99 % 1013,6 hPa 0,0 l/m 7,1 km/h (2 Bft) N-NO 15 0 min 0,000 mm 0,0 UV-I 0 W/m 5,0 C 4,5 C 11,3 km/h (2 Bft) 100,00 %
19.11.2016 02:26 5,0 C 99 % 1013,6 hPa 0,0 l/m 7,3 km/h (2 Bft) N-NO 15 0 min 0,000 mm 0,0 UV-I 0 W/m 4,9 C 4,2 C 9,7 km/h (2 Bft) 100,00 %
19.11.2016 02:28 5,0 C 99 % 1013,5 hPa 0,0 l/m 5,3 km/h (1 Bft) N-NO 22 0 min 0,000 mm 0,0 UV-I 0 W/m 4,9 C 5,0 C 8,0 km/h (2 Bft) 100,00 %
19.11.2016 02:30 5,0 C 99 % 1013,5 hPa 0,0 l/m 6,4 km/h (2 Bft) N-NO 26 0 min 0,000 mm 0,0 UV-I 0 W/m 4,9 C 5,0 C 9,7 km/h (2 Bft) 100,00 %
19.11.2016 02:32 5,0 C 99 % 1013,6 hPa 0,0 l/m 6,5 km/h (2 Bft) N-NO 32 0 min 0,000 mm 0,0 UV-I 0 W/m 4,9 C 4,9 C 8,0 km/h (2 Bft) 100,00 %
19.11.2016 02:34 5,0 C 99 % 1013,7 hPa 0,0 l/m 5,1 km/h (1 Bft) NO 45 0 min 0,000 mm 0,0 UV-I 0 W/m 4,9 C 5,0 C 6,4 km/h (2 Bft) 100,00 %
19.11.2016 02:36 5,0 C 99 % 1013,7 hPa 0,0 l/m 5,3 km/h (1 Bft) NO 46 0 min 0,000 mm 0,0 UV-I 0 W/m 4,9 C 5,0 C 8,0 km/h (2 Bft) 100,00 %
19.11.2016 02:38 5,0 C 99 % 1013,6 hPa 0,0 l/m 6,7 km/h (2 Bft) NO 55 0 min 0,000 mm 0,0 UV-I 0 W/m 4,9 C 4,8 C 8,0 km/h (2 Bft) 98,00 %
19.11.2016 02:40 5,0 C 99 % 1013,6 hPa 0,0 l/m 5,2 km/h (1 Bft) NO 51 0 min 0,000 mm 0,0 UV-I 0 W/m 4,9 C 5,0 C 6,4 km/h (2 Bft) 97,87 %
19.11.2016 02:42 5,0 C 99 % 1013,6 hPa 0,0 l/m 6,7 km/h (2 Bft) NO 48 0 min 0,000 mm 0,0 UV-I 0 W/m 4,9 C 4,8 C 8,0 km/h (2 Bft) 100,00 %
19.11.2016 02:44 5,0 C 99 % 1013,4 hPa 0,0 l/m 6,8 km/h (2 Bft) O-NO 69 0 min 0,000 mm 0,0 UV-I 0 W/m 4,9 C 4,7 C 8,0 km/h (2 Bft) 100,00 %
19.11.2016 02:46 5,0 C 99 % 1013,4 hPa 0,0 l/m 6,9 km/h (2 Bft) NO 38 0 min 0,000 mm 0,0 UV-I 0 W/m 4,9 C 4,6 C 9,7 km/h (2 Bft) 100,00 %
19.11.2016 02:48 5,1 C 99 % 1013,3 hPa 0,0 l/m 5,1 km/h (1 Bft) N-NO 28 0 min 0,000 mm 0,0 UV-I 0 W/m 5,0 C 5,1 C 6,4 km/h (2 Bft) 100,00 %
19.11.2016 02:50 5,0 C 99 % 1013,4 hPa 0,0 l/m 5,7 km/h (1 Bft) NO 38 0 min 0,000 mm 0,0 UV-I 0 W/m 4,9 C 5,0 C 9,7 km/h (2 Bft) 100,00 %
19.11.2016 02:52 5,0 C 99 % 1013,4 hPa 0,0 l/m 3,8 km/h (1 Bft) NO 42 0 min 0,000 mm 0,0 UV-I 0 W/m 4,9 C 5,0 C 6,4 km/h (2 Bft) 100,00 %
19.11.2016 02:54 5,0 C 99 % 1013,4 hPa 0,0 l/m 2,7 km/h (1 Bft) NO 42 0 min 0,000 mm 0,0 UV-I 0 W/m 4,9 C 5,0 C 4,8 km/h (1 Bft) 100,00 %
19.11.2016 02:56 5,0 C 99 % 1013,4 hPa 0,0 l/m 3,0 km/h (1 Bft) NO 42 0 min 0,000 mm 0,0 UV-I 0 W/m 4,9 C 5,0 C 4,8 km/h (1 Bft) 98,00 %
19.11.2016 02:58 5,0 C 99 % 1013,5 hPa 0,0 l/m 5,4 km/h (1 Bft) O-NO 67 0 min 0,000 mm 0,0 UV-I 0 W/m 4,9 C 5,0 C 8,0 km/h (2 Bft) 100,00 %
19.11.2016 03:00 5,0 C 99 % 1013,4 hPa 0,0 l/m 6,6 km/h (2 Bft) O-NO 59 0 min 0,000 mm 0,0 UV-I 0 W/m 4,9 C 4,8 C 9,7 km/h (2 Bft) 100,00 %
19.11.2016 03:02 5,0 C 99 % 1013,4 hPa 0,0 l/m 7,2 km/h (2 Bft) O-NO 72 0 min 0,000 mm 0,0 UV-I 0 W/m 4,9 C 4,3 C 12,9 km/h (3 Bft) 100,00 %
19.11.2016 03:04 5,0 C 99 % 1013,4 hPa 0,0 l/m 5,4 km/h (1 Bft) NO 55 0 min 0,000 mm 0,0 UV-I 0 W/m 4,9 C 5,0 C 6,4 km/h (2 Bft) 100,00 %
19.11.2016 03:06 4,9 C 99 % 1013,4 hPa 0,0 l/m 2,9 km/h (1 Bft) NO 55 0 min 0,000 mm 0,0 UV-I 0 W/m 4,8 C 4,9 C 4,8 km/h (1 Bft) 100,00 %
19.11.2016 03:08 4,9 C 99 % 1013,3 hPa 0,0 l/m 0,8 km/h (0 Bft) NO 55 0 min 0,000 mm 0,0 UV-I 0 W/m 4,8 C 4,9 C 1,6 km/h (1 Bft) 100,00 %
19.11.2016 03:10 5,0 C 99 % 1013,3 hPa 0,0 l/m 2,6 km/h (1 Bft) NO 55 0 min 0,000 mm 0,0 UV-I 0 W/m 4,9 C 5,0 C 4,8 km/h (1 Bft) 98,00 %
19.11.2016 03:12 4,9 C 99 % 1013,1 hPa 0,0 l/m 5,8 km/h (2 Bft) NO 51 0 min 0,000 mm 0,0 UV-I 0 W/m 4,8 C 4,9 C 8,0 km/h (2 Bft) 100,00 %
19.11.2016 03:14 4,9 C 99 % 1013,1 hPa 0,0 l/m 5,0 km/h (1 Bft) O-NO 64 0 min 0,000 mm 0,0 UV-I 0 W/m 4,8 C 4,9 C 8,0 km/h (2 Bft) 100,00 %
19.11.2016 03:16 4,9 C 99 % 1012,9 hPa 0,0 l/m 4,5 km/h (1 Bft) O-NO 59 0 min 0,000 mm 0,0 UV-I 0 W/m 4,8 C 4,9 C 6,4 km/h (2 Bft) 98,18 %
19.11.2016 03:18 4,9 C 99 % 1012,9 hPa 0,0 l/m 5,9 km/h (2 Bft) NO 51 0 min 0,000 mm 0,0 UV-I 0 W/m 4,8 C 4,9 C 8,0 km/h (2 Bft) 100,00 %
19.11.2016 03:20 4,9 C 99 % 1012,9 hPa 0,0 l/m 6,3 km/h (2 Bft) NO 39 0 min 0,000 mm 0,0 UV-I 0 W/m 4,8 C 4,9 C 9,7 km/h (2 Bft) 100,00 %
19.11.2016 03:22 4,9 C 99 % 1012,9 hPa 0,0 l/m 5,9 km/h (2 Bft) NO 40 0 min 0,000 mm 0,0 UV-I 0 W/m 4,8 C 4,9 C 8,0 km/h (2 Bft) 100,00 %
19.11.2016 03:24 4,9 C 99 % 1012,9 hPa 0,0 l/m 5,2 km/h (1 Bft) O-NO 62 0 min 0,000 mm 0,0 UV-I 0 W/m 4,8 C 4,9 C 8,0 km/h (2 Bft) 100,00 %
19.11.2016 03:26 4,9 C 99 % 1012,9 hPa 0,0 l/m 5,7 km/h (1 Bft) NO 49 0 min 0,000 mm 0,0 UV-I 0 W/m 4,8 C 4,9 C 8,0 km/h (2 Bft) 100,00 %
19.11.2016 03:28 4,9 C 99 % 1012,8 hPa 0,0 l/m 4,9 km/h (1 Bft) NO 41 0 min 0,000 mm 0,0 UV-I 0 W/m 4,8 C 4,9 C 6,4 km/h (2 Bft) 100,00 %
19.11.2016 03:30 4,9 C 99 % 1012,9 hPa 0,0 l/m 5,2 km/h (1 Bft) NO 56 0 min 0,000 mm 0,0 UV-I 0 W/m 4,8 C 4,9 C 8,0 km/h (2 Bft) 100,00 %
19.11.2016 03:32 4,9 C 99 % 1012,8 hPa 0,0 l/m 7,4 km/h (2 Bft) O-NO 63 0 min 0,000 mm 0,0 UV-I 0 W/m 4,8 C 4,0 C 9,7 km/h (2 Bft) 97,56 %
19.11.2016 03:34 4,9 C 99 % 1012,9 hPa 0,0 l/m 6,3 km/h (2 Bft) O-NO 58 0 min 0,000 mm 0,0 UV-I 0 W/m 4,8 C 4,9 C 8,0 km/h (2 Bft) 98,00 %
19.11.2016 03:36 4,9 C 99 % 1012,9 hPa 0,0 l/m 7,3 km/h (2 Bft) NO 55 0 min 0,000 mm 0,0 UV-I 0 W/m 4,8 C 4,1 C 9,7 km/h (2 Bft) 94,12 %
19.11.2016 03:38 4,9 C 99 % 1012,8 hPa 0,0 l/m 8,4 km/h (2 Bft) NO 55 0 min 0,000 mm 0,0 UV-I 0 W/m 4,8 C 3,2 C 11,3 km/h (2 Bft) 97,73 %
19.11.2016 03:40 4,9 C 99 % 1012,7 hPa 0,0 l/m 8,8 km/h (2 Bft) O-NO 61 0 min 0,000 mm 0,0 UV-I 0 W/m 4,8 C 2,9 C 14,5 km/h (3 Bft) 97,56 %
19.11.2016 03:42 4,8 C 99 % 1012,7 hPa 0,0 l/m 10,9 km/h (2 Bft) O-NO 65 0 min 0,000 mm 0,0 UV-I 0 W/m 4,7 C 1,2 C 14,5 km/h (3 Bft) 96,23 %
19.11.2016 03:44 4,8 C 99 % 1012,7 hPa 0,0 l/m 10,4 km/h (2 Bft) O-NO 61 0 min 0,000 mm 0,0 UV-I 0 W/m 4,7 C 1,6 C 14,5 km/h (3 Bft) 97,73 %
19.11.2016 03:46 4,8 C 99 % 1012,7 hPa 0,0 l/m 8,4 km/h (2 Bft) O-NO 63 0 min 0,000 mm 0,0 UV-I 0 W/m 4,7 C 3,1 C 12,9 km/h (3 Bft) 98,21 %
19.11.2016 03:48 4,8 C 99 % 1012,7 hPa 0,0 l/m 8,8 km/h (2 Bft) NO 51 0 min 0,000 mm 0,0 UV-I 0 W/m 4,7 C 2,7 C 12,9 km/h (3 Bft) 97,56 %
19.11.2016 03:50 4,8 C 99 % 1012,8 hPa 0,0 l/m 9,3 km/h (2 Bft) NO 46 0 min 0,000 mm 0,0 UV-I 0 W/m 4,7 C 2,4 C 12,9 km/h (3 Bft) 97,44 %
19.11.2016 03:52 4,8 C 99 % 1012,8 hPa 0,0 l/m 7,1 km/h (2 Bft) O-NO 59 0 min 0,000 mm 0,0 UV-I 0 W/m 4,7 C 4,2 C 9,7 km/h (2 Bft) 96,36 %
19.11.2016 03:54 4,8 C 99 % 1012,9 hPa 0,0 l/m 6,8 km/h (2 Bft) O-NO 57 0 min 0,000 mm 0,0 UV-I 0 W/m 4,7 C 4,5 C 9,7 km/h (2 Bft) 97,87 %
19.11.2016 03:56 4,8 C 99 % 1012,9 hPa 0,0 l/m 5,8 km/h (2 Bft) O-NO 69 0 min 0,000 mm 0,0 UV-I 0 W/m 4,7 C 4,8 C 8,0 km/h (2 Bft) 97,44 %
19.11.2016 03:58 4,8 C 99 % 1012,9 hPa 0,0 l/m 3,6 km/h (1 Bft) O-NO 69 0 min 0,000 mm 0,0 UV-I 0 W/m 4,7 C 4,8 C 4,8 km/h (1 Bft) 98,11 %
19.11.2016 04:00 4,8 C 99 % 1012,8 hPa 0,0 l/m 4,5 km/h (1 Bft) O-NO 71 0 min 0,000 mm 0,0 UV-I 0 W/m 4,7 C 4,8 C 6,4 km/h (2 Bft) 90,57 %
19.11.2016 04:02 4,8 C 99 % 1012,8 hPa 0,0 l/m 2,6 km/h (1 Bft) O-NO 71 0 min 0,000 mm 0,0 UV-I 0 W/m 4,7 C 4,8 C 4,8 km/h (1 Bft) 96,88 %
19.11.2016 04:04 4,8 C 99 % 1012,8 hPa 0,0 l/m 5,6 km/h (1 Bft) NO 45 0 min 0,000 mm 0,0 UV-I 0 W/m 4,7 C 4,8 C 9,7 km/h (2 Bft) 97,37 %
19.11.2016 04:06 4,8 C 99 % 1012,8 hPa 0,0 l/m 5,6 km/h (1 Bft) O-NO 61 0 min 0,000 mm 0,0 UV-I 0 W/m 4,7 C 4,8 C 8,0 km/h (2 Bft) 100,00 %
19.11.2016 04:08 4,8 C 99 % 1012,7 hPa 0,0 l/m 7,0 km/h (2 Bft) NO 54 0 min 0,000 mm 0,0 UV-I 0 W/m 4,7 C 4,3 C 9,7 km/h (2 Bft) 100,00 %
19.11.2016 04:10 4,8 C 99 % 1012,7 hPa 0,0 l/m 6,2 km/h (2 Bft) O-NO 65 0 min 0,000 mm 0,0 UV-I 0 W/m 4,7 C 4,8 C 9,7 km/h (2 Bft) 98,11 %
19.11.2016 04:12 4,8 C 99 % 1012,7 hPa 0,0 l/m 6,9 km/h (2 Bft) O-NO 61 0 min 0,000 mm 0,0 UV-I 0 W/m 4,7 C 4,4 C 9,7 km/h (2 Bft) 97,56 %
19.11.2016 04:14 4,7 C 99 % 1012,7 hPa 0,0 l/m 6,3 km/h (2 Bft) O-NO 70 0 min 0,000 mm 0,0 UV-I 0 W/m 4,6 C 4,7 C 8,0 km/h (2 Bft) 100,00 %
19.11.2016 04:16 4,7 C 99 % 1012,6 hPa 0,0 l/m 6,9 km/h (2 Bft) O-NO 67 0 min 0,000 mm 0,0 UV-I 0 W/m 4,6 C 4,3 C 9,7 km/h (2 Bft) 100,00 %
19.11.2016 04:18 4,7 C 99 % 1012,6 hPa 0,0 l/m 6,9 km/h (2 Bft) NO 53 0 min 0,000 mm 0,0 UV-I 0 W/m 4,6 C 4,3 C 9,7 km/h (2 Bft) 98,00 %
19.11.2016 04:20 4,7 C 99 % 1012,5 hPa 0,0 l/m 6,0 km/h (2 Bft) NO 44 0 min 0,000 mm 0,0 UV-I 0 W/m 4,6 C 4,7 C 9,7 km/h (2 Bft) 100,00 %
19.11.2016 04:22 4,7 C 99 % 1012,6 hPa 0,0 l/m 6,9 km/h (2 Bft) NO 40 0 min 0,000 mm 0,0 UV-I 0 W/m 4,6 C 4,3 C 9,7 km/h (2 Bft) 100,00 %
19.11.2016 04:24 4,7 C 99 % 1012,6 hPa 0,0 l/m 7,1 km/h (2 Bft) O-NO 62 0 min 0,000 mm 0,0 UV-I 0 W/m 4,6 C 4,1 C 9,7 km/h (2 Bft) 100,00 %
19.11.2016 04:26 4,7 C 99 % 1012,6 hPa 0,0 l/m 8,0 km/h (2 Bft) NO 56 0 min 0,000 mm 0,0 UV-I 0 W/m 4,6 C 3,3 C 12,9 km/h (3 Bft) 100,00 %
19.11.2016 04:28 4,7 C 99 % 1012,5 hPa 0,0 l/m 9,1 km/h (2 Bft) NO 53 0 min 0,000 mm 0,0 UV-I 0 W/m 4,6 C 2,4 C 12,9 km/h (3 Bft) 100,00 %
19.11.2016 04:30 4,7 C 99 % 1012,5 hPa 0,0 l/m 7,1 km/h (2 Bft) NO 54 0 min 0,000 mm 0,0 UV-I 0 W/m 4,6 C 4,1 C 9,7 km/h (2 Bft) 100,00 %
19.11.2016 04:32 4,7 C 99 % 1012,4 hPa 0,0 l/m 6,8 km/h (2 Bft) O-NO 58 0 min 0,000 mm 0,0 UV-I 0 W/m 4,6 C 4,4 C 12,9 km/h (3 Bft) 100,00 %
19.11.2016 04:34 4,7 C 99 % 1012,3 hPa 0,0 l/m 8,6 km/h (2 Bft) NO 52 0 min 0,000 mm 0,0 UV-I 0 W/m 4,6 C 2,8 C 14,5 km/h (3 Bft) 100,00 %
19.11.2016 04:36 4,7 C 99 % 1012,4 hPa 0,0 l/m 8,5 km/h (2 Bft) O-NO 68 0 min 0,000 mm 0,0 UV-I 0 W/m 4,6 C 2,9 C 14,5 km/h (3 Bft) 100,00 %
19.11.2016 04:38 4,7 C 99 % 1012,4 hPa 0,0 l/m 8,3 km/h (2 Bft) O-NO 75 0 min 0,000 mm 0,0 UV-I 0 W/m 4,6 C 3,0 C 12,9 km/h (3 Bft) 100,00 %
19.11.2016 04:40 4,6 C 99 % 1012,5 hPa 0,0 l/m 6,9 km/h (2 Bft) O-NO 61 0 min 0,000 mm 0,0 UV-I 0 W/m 4,5 C 4,2 C 9,7 km/h (2 Bft) 100,00 %
19.11.2016 04:42 4,6 C 99 % 1012,5 hPa 0,0 l/m 6,8 km/h (2 Bft) NO 49 0 min 0,000 mm 0,0 UV-I 0 W/m 4,5 C 4,3 C 8,0 km/h (2 Bft) 100,00 %
19.11.2016 04:44 4,7 C 99 % 1012,5 hPa 0,0 l/m 7,4 km/h (2 Bft) O-NO 60 0 min 0,000 mm 0,0 UV-I 0 W/m 4,6 C 3,8 C 9,7 km/h (2 Bft) 100,00 %
19.11.2016 04:46 4,6 C 99 % 1012,5 hPa 0,0 l/m 7,8 km/h (2 Bft) O-NO 69 0 min 0,000 mm 0,0 UV-I 0 W/m 4,5 C 3,4 C 11,3 km/h (2 Bft) 100,00 %
19.11.2016 04:48 4,6 C 99 % 1012,4 hPa 0,0 l/m 7,8 km/h (2 Bft) O-NO 58 0 min 0,000 mm 0,0 UV-I 0 W/m 4,5 C 3,4 C 11,3 km/h (2 Bft) 98,00 %
19.11.2016 04:50 4,6 C 99 % 1012,4 hPa 0,0 l/m 7,4 km/h (2 Bft) NO 47 0 min 0,000 mm 0,0 UV-I 0 W/m 4,5 C 3,7 C 14,5 km/h (3 Bft) 98,00 %
19.11.2016 04:52 4,6 C 99 % 1012,4 hPa 0,0 l/m 8,2 km/h (2 Bft) NO 52 0 min 0,000 mm 0,0 UV-I 0 W/m 4,5 C 3,0 C 11,3 km/h (2 Bft) 100,00 %
19.11.2016 04:54 4,6 C 99 % 1012,3 hPa 0,0 l/m 6,2 km/h (2 Bft) O-NO 63 0 min 0,000 mm 0,0 UV-I 0 W/m 4,5 C 4,6 C 9,7 km/h (2 Bft) 97,87 %
19.11.2016 04:56 4,6 C 99 % 1012,3 hPa 0,0 l/m 6,5 km/h (2 Bft) O-NO 70 0 min 0,000 mm 0,0 UV-I 0 W/m 4,5 C 4,5 C 9,7 km/h (2 Bft) 100,00 %
19.11.2016 04:58 4,6 C 99 % 1012,3 hPa 0,0 l/m 7,0 km/h (2 Bft) O 80 0 min 0,000 mm 0,0 UV-I 0 W/m 4,5 C 4,1 C 9,7 km/h (2 Bft) 100,00 %
19.11.2016 05:00 4,6 C 99 % 1012,3 hPa 0,0 l/m 9,1 km/h (2 Bft) O-NO 72 0 min 0,000 mm 0,0 UV-I 0 W/m 4,5 C 2,3 C 12,9 km/h (3 Bft) 98,11 %
19.11.2016 05:02 4,6 C 99 % 1012,3 hPa 0,0 l/m 8,3 km/h (2 Bft) O-NO 62 0 min 0,000 mm 0,0 UV-I 0 W/m 4,5 C 2,9 C 12,9 km/h (3 Bft) 100,00 %
19.11.2016 05:04 4,6 C 99 % 1012,2 hPa 0,0 l/m 8,4 km/h (2 Bft) O-NO 65 0 min 0,000 mm 0,0 UV-I 0 W/m 4,5 C 2,9 C 12,9 km/h (3 Bft) 100,00 %
19.11.2016 05:06 4,6 C 99 % 1012,2 hPa 0,0 l/m 8,4 km/h (2 Bft) NO 50 0 min 0,000 mm 0,0 UV-I 0 W/m 4,5 C 2,9 C 12,9 km/h (3 Bft) 100,00 %
19.11.2016 05:08 4,6 C 99 % 1012,3 hPa 0,0 l/m 9,1 km/h (2 Bft) O-NO 59 0 min 0,000 mm 0,0 UV-I 0 W/m 4,5 C 2,3 C 12,9 km/h (3 Bft) 100,00 %
19.11.2016 05:10 4,6 C 99 % 1012,3 hPa 0,0 l/m 7,3 km/h (2 Bft) NO 40 0 min 0,000 mm 0,0 UV-I 0 W/m 4,5 C 3,8 C 11,3 km/h (2 Bft) 100,00 %
19.11.2016 05:12 4,6 C 99 % 1012,3 hPa 0,0 l/m 7,4 km/h (2 Bft) NO 56 0 min 0,000 mm 0,0 UV-I 0 W/m 4,5 C 3,7 C 9,7 km/h (2 Bft) 98,00 %
19.11.2016 05:14 4,6 C 99 % 1012,3 hPa 0,0 l/m 7,3 km/h (2 Bft) O-NO 57 0 min 0,000 mm 0,0 UV-I 0 W/m 4,5 C 3,8 C 9,7 km/h (2 Bft) 100,00 %
19.11.2016 05:16 4,6 C 99 % 1012,3 hPa 0,0 l/m 5,9 km/h (2 Bft) O-NO 65 0 min 0,000 mm 0,0 UV-I 0 W/m 4,5 C 4,6 C 8,0 km/h (2 Bft) 100,00 %
19.11.2016 05:18 4,6 C 99 % 1012,3 hPa 0,0 l/m 6,9 km/h (2 Bft) O-NO 61 0 min 0,000 mm 0,0 UV-I 0 W/m 4,5 C 4,2 C 11,3 km/h (2 Bft) 100,00 %
19.11.2016 05:20 4,6 C 99 % 1012,3 hPa 0,0 l/m 7,3 km/h (2 Bft) O-NO 66 0 min 0,000 mm 0,0 UV-I 0 W/m 4,5 C 3,8 C 9,7 km/h (2 Bft) 100,00 %
19.11.2016 05:22 4,6 C 99 % 1012,2 hPa 0,0 l/m 6,0 km/h (2 Bft) O-NO 59 0 min 0,000 mm 0,0 UV-I 0 W/m 4,5 C 4,6 C 11,3 km/h (2 Bft) 100,00 %
19.11.2016 05:24 4,6 C 99 % 1012,3 hPa 0,0 l/m 4,9 km/h (1 Bft) O-NO 72 0 min 0,000 mm 0,0 UV-I 0 W/m 4,5 C 4,6 C 8,0 km/h (2 Bft) 100,00 %
19.11.2016 05:26 4,6 C 99 % 1012,3 hPa 0,0 l/m 3,2 km/h (1 Bft) NO 45 0 min 0,000 mm 0,0 UV-I 0 W/m 4,5 C 4,6 C 6,4 km/h (2 Bft) 100,00 %
19.11.2016 05:28 4,6 C 99 % 1012,3 hPa 0,0 l/m 4,1 km/h (1 Bft) NO 54 0 min 0,000 mm 0,0 UV-I 0 W/m 4,5 C 4,6 C 6,4 km/h (2 Bft) 100,00 %
19.11.2016 05:30 4,6 C 99 % 1012,3 hPa 0,0 l/m 2,7 km/h (1 Bft) NO 54 0 min 0,000 mm 0,0 UV-I 0 W/m 4,5 C 4,6 C 4,8 km/h (1 Bft) 100,00 %
19.11.2016 05:32 4,6 C 99 % 1012,3 hPa 0,0 l/m 3,3 km/h (1 Bft) NO 54 0 min 0,000 mm 0,0 UV-I 0 W/m 4,5 C 4,6 C 6,4 km/h (2 Bft) 100,00 %
19.11.2016 05:34 4,6 C 99 % 1012,2 hPa 0,0 l/m 3,6 km/h (1 Bft) NO 54 0 min 0,000 mm 0,0 UV-I 0 W/m 4,5 C 4,6 C 4,8 km/h (1 Bft) 98,00 %
19.11.2016 05:36 4,6 C 99 % 1012,1 hPa 0,0 l/m 1,8 km/h (1 Bft) NO 54 0 min 0,000 mm 0,0 UV-I 0 W/m 4,5 C 4,6 C 3,2 km/h (1 Bft) 96,00 %
19.11.2016 05:38 4,6 C 99 % 1012,0 hPa 0,0 l/m 2,6 km/h (1 Bft) NO 54 0 min 0,000 mm 0,0 UV-I 0 W/m 4,5 C 4,6 C 4,8 km/h (1 Bft) 98,00 %
19.11.2016 05:40 4,6 C 99 % 1011,9 hPa 0,0 l/m 2,0 km/h (1 Bft) NO 54 0 min 0,000 mm 0,0 UV-I 0 W/m 4,5 C 4,6 C 4,8 km/h (1 Bft) 97,87 %
19.11.2016 05:42 4,6 C 99 % 1011,8 hPa 0,0 l/m 1,2 km/h (1 Bft) NO 53 0 min 0,000 mm 0,0 UV-I 0 W/m 4,5 C 4,6 C 3,2 km/h (1 Bft) 97,56 %
19.11.2016 05:44 4,6 C 99 % 1011,7 hPa 0,0 l/m 2,8 km/h (1 Bft) NO 54 0 min 0,000 mm 0,0 UV-I 0 W/m 4,5 C 4,6 C 3,2 km/h (1 Bft) 97,73 %
19.11.2016 05:46 4,6 C 99 % 1011,7 hPa 0,0 l/m 1,8 km/h (1 Bft) NO 54 0 min 0,000 mm 0,0 UV-I 0 W/m 4,5 C 4,6 C 3,2 km/h (1 Bft) 94,34 %
19.11.2016 05:48 4,6 C 99 % 1011,7 hPa 0,0 l/m 2,1 km/h (1 Bft) NO 53 0 min 0,000 mm 0,0 UV-I 0 W/m 4,5 C 4,6 C 3,2 km/h (1 Bft) 97,87 %
19.11.2016 05:50 4,6 C 99 % 1011,6 hPa 0,0 l/m 3,0 km/h (1 Bft) NO 53 0 min 0,000 mm 0,0 UV-I 0 W/m 4,5 C 4,6 C 4,8 km/h (1 Bft) 97,62 %
19.11.2016 05:52 4,6 C 99 % 1011,7 hPa 0,0 l/m 1,6 km/h (1 Bft) NO 53 0 min 0,000 mm 0,0 UV-I 0 W/m 4,5 C 4,6 C 3,2 km/h (1 Bft) 98,08 %
19.11.2016 05:54 4,6 C 99 % 1011,7 hPa 0,0 l/m 1,5 km/h (1 Bft) NO 54 0 min 0,000 mm 0,0 UV-I 0 W/m 4,5 C 4,6 C 3,2 km/h (1 Bft) 96,00 %
19.11.2016 05:56 4,6 C 99 % 1011,6 hPa 0,0 l/m 0,4 km/h (0 Bft) NO 53 0 min 0,000 mm 0,0 UV-I 0 W/m 4,5 C 4,6 C 3,2 km/h (1 Bft) 97,44 %
19.11.2016 05:58 4,6 C 99 % 1011,6 hPa 0,0 l/m 0,0 km/h (0 Bft) NO 54 0 min 0,000 mm 0,0 UV-I 0 W/m 4,5 C 4,6 C 0,0 km/h (0 Bft) 98,21 %
19.11.2016 06:00 4,6 C 99 % 1011,6 hPa 0,0 l/m 0,3 km/h (0 Bft) NO 54 0 min 0,000 mm 0,0 UV-I 0 W/m 4,5 C 4,6 C 1,6 km/h (1 Bft) 97,87 %
19.11.2016 06:02 4,6 C 99 % 1011,5 hPa 0,0 l/m 0,0 km/h (0 Bft) NO 53 0 min 0,000 mm 0,0 UV-I 0 W/m 4,5 C 4,6 C 1,6 km/h (1 Bft) 97,37 %
19.11.2016 06:04 4,6 C 99 % 1011,5 hPa 0,0 l/m 0,1 km/h (0 Bft) NO 54 0 min 0,000 mm 0,0 UV-I 0 W/m 4,5 C 4,6 C 1,6 km/h (1 Bft) 97,87 %
19.11.2016 06:06 4,6 C 99 % 1011,6 hPa 0,0 l/m 0,3 km/h (0 Bft) NO 54 0 min 0,000 mm 0,0 UV-I 0 W/m 4,5 C 4,6 C 1,6 km/h (1 Bft) 98,00 %
19.11.2016 06:08 4,6 C 99 % 1011,6 hPa 0,0 l/m 0,0 km/h (0 Bft) NO 54 0 min 0,000 mm 0,0 UV-I 0 W/m 4,5 C 4,6 C 0,0 km/h (0 Bft) 96,23 %
19.11.2016 06:10 4,6 C 99 % 1011,6 hPa 0,0 l/m 0,0 km/h (0 Bft) NO 54 0 min 0,000 mm 0,0 UV-I 0 W/m 4,5 C 4,6 C 0,0 km/h (0 Bft) 100,00 %
19.11.2016 06:12 4,6 C 99 % 1011,5 hPa 0,0 l/m 0,0 km/h (0 Bft) NO 54 0 min 0,000 mm 0,0 UV-I 0 W/m 4,5 C 4,6 C 0,0 km/h (0 Bft) 100,00 %
19.11.2016 06:14 4,6 C 99 % 1011,4 hPa 0,0 l/m 0,2 km/h (0 Bft) NO 54 0 min 0,000 mm 0,0 UV-I 0 W/m 4,5 C 4,6 C 1,6 km/h (1 Bft) 100,00 %
19.11.2016 06:16 4,6 C 99 % 1011,3 hPa 0,0 l/m 1,8 km/h (1 Bft) NO 53 0 min 0,000 mm 0,0 UV-I 0 W/m 4,5 C 4,6 C 3,2 km/h (1 Bft) 97,73 %
19.11.2016 06:18 4,6 C 99 % 1011,1 hPa 0,0 l/m 2,2 km/h (1 Bft) NO 53 0 min 0,000 mm 0,0 UV-I 0 W/m 4,5 C 4,6 C 3,2 km/h (1 Bft) 100,00 %
19.11.2016 06:20 4,6 C 99 % 1011,1 hPa 0,0 l/m 0,3 km/h (0 Bft) NO 53 0 min 0,000 mm 0,0 UV-I 0 W/m 4,5 C 4,6 C 1,6 km/h (1 Bft) 97,87 %
19.11.2016 06:22 4,6 C 99 % 1011,1 hPa 0,0 l/m 0,3 km/h (0 Bft) NO 53 0 min 0,000 mm 0,0 UV-I 0 W/m 4,5 C 4,6 C 1,6 km/h (1 Bft) 97,14 %
19.11.2016 06:24 4,6 C 99 % 1011,1 hPa 0,0 l/m 1,4 km/h (1 Bft) NO 49 0 min 0,000 mm 0,0 UV-I 0 W/m 4,5 C 4,6 C 3,2 km/h (1 Bft) 98,39 %
19.11.2016 06:26 4,6 C 99 % 1011,1 hPa 0,0 l/m 0,8 km/h (0 Bft) NO 49 0 min 0,000 mm 0,0 UV-I 0 W/m 4,5 C 4,6 C 3,2 km/h (1 Bft) 100,00 %
19.11.2016 06:28 4,5 C 99 % 1011,0 hPa 0,0 l/m 0,1 km/h (0 Bft) NO 49 0 min 0,000 mm 0,0 UV-I 0 W/m 4,4 C 4,5 C 1,6 km/h (1 Bft) 100,00 %
19.11.2016 06:30 4,5 C 99 % 1011,0 hPa 0,0 l/m 0,0 km/h (0 Bft) NO 49 0 min 0,000 mm 0,0 UV-I 0 W/m 4,4 C 4,5 C 0,0 km/h (0 Bft) 100,00 %
19.11.2016 06:32 4,5 C 99 % 1011,0 hPa 0,0 l/m 0,1 km/h (0 Bft) NO 49 0 min 0,000 mm 0,0 UV-I 0 W/m 4,4 C 4,5 C 1,6 km/h (1 Bft) 100,00 %
19.11.2016 06:34 4,5 C 99 % 1011,0 hPa 0,0 l/m 0,7 km/h (0 Bft) NO 49 0 min 0,000 mm 0,0 UV-I 0 W/m 4,4 C 4,5 C 3,2 km/h (1 Bft) 100,00 %
19.11.2016 06:36 4,4 C 99 % 1011,0 hPa 0,0 l/m 2,0 km/h (1 Bft) NO 49 0 min 0,000 mm 0,0 UV-I 0 W/m 4,3 C 4,4 C 3,2 km/h (1 Bft) 100,00 %
19.11.2016 06:38 4,4 C 99 % 1011,0 hPa 0,0 l/m 2,8 km/h (1 Bft) NO 49 0 min 0,000 mm 0,0 UV-I 0 W/m 4,3 C 4,4 C 3,2 km/h (1 Bft) 100,00 %
19.11.2016 06:40 4,4 C 99 % 1011,0 hPa 0,0 l/m 1,6 km/h (1 Bft) NO 49 0 min 0,000 mm 0,0 UV-I 0 W/m 4,3 C 4,4 C 3,2 km/h (1 Bft) 98,11 %
19.11.2016 06:42 4,5 C 99 % 1011,2 hPa 0,0 l/m 0,5 km/h (0 Bft) NO 49 0 min 0,000 mm 0,0 UV-I 0 W/m 4,4 C 4,5 C 3,2 km/h (1 Bft) 100,00 %
19.11.2016 06:44 4,5 C 99 % 1011,2 hPa 0,0 l/m 0,3 km/h (0 Bft) NO 49 0 min 0,000 mm 0,0 UV-I 0 W/m 4,4 C 4,5 C 3,2 km/h (1 Bft) 100,00 %
19.11.2016 06:46 4,5 C 99 % 1011,2 hPa 0,0 l/m 0,0 km/h (0 Bft) NO 49 0 min 0,000 mm 0,0 UV-I 0 W/m 4,4 C 4,5 C 1,6 km/h (1 Bft) 100,00 %
19.11.2016 06:48 4,5 C 99 % 1011,2 hPa 0,0 l/m 0,0 km/h (0 Bft) NO 49 0 min 0,000 mm 0,0 UV-I 0 W/m 4,4 C 4,5 C 0,0 km/h (0 Bft) 100,00 %
19.11.2016 06:50 4,5 C 99 % 1011,1 hPa 0,0 l/m 0,0 km/h (0 Bft) NO 49 0 min 0,000 mm 0,0 UV-I 0 W/m 4,4 C 4,5 C 0,0 km/h (0 Bft) 100,00 %
19.11.2016 06:52 4,5 C 99 % 1011,1 hPa 0,0 l/m 0,3 km/h (0 Bft) NO 49 0 min 0,000 mm 0,0 UV-I 0 W/m 4,4 C 4,5 C 1,6 km/h (1 Bft) 98,00 %
19.11.2016 06:54 4,5 C 99 % 1011,1 hPa 0,0 l/m 0,0 km/h (0 Bft) NO 49 0 min 0,000 mm 0,0 UV-I 0 W/m 4,4 C 4,5 C 0,0 km/h (0 Bft) 100,00 %
19.11.2016 06:56 4,5 C 99 % 1011,0 hPa 0,0 l/m 0,0 km/h (0 Bft) NO 49 0 min 0,000 mm 0,0 UV-I 0 W/m 4,4 C 4,5 C 1,6 km/h (1 Bft) 100,00 %
19.11.2016 06:58 4,5 C 99 % 1011,0 hPa 0,0 l/m 1,1 km/h (1 Bft) NO 49 0 min 0,000 mm 0,0 UV-I 0 W/m 4,4 C 4,5 C 1,6 km/h (1 Bft) 94,74 %
19.11.2016 07:00 4,5 C 99 % 1010,9 hPa 0,0 l/m 1,5 km/h (1 Bft) NO 49 0 min 0,000 mm 0,0 UV-I 0 W/m 4,4 C 4,5 C 3,2 km/h (1 Bft) 100,00 %
19.11.2016 07:02 4,5 C 99 % 1010,8 hPa 0,0 l/m 0,8 km/h (0 Bft) NO 49 0 min 0,000 mm 0,0 UV-I 0 W/m 4,4 C 4,5 C 1,6 km/h (1 Bft) 100,00 %
19.11.2016 07:04 4,5 C 99 % 1010,7 hPa 0,0 l/m 0,0 km/h (0 Bft) NO 49 0 min 0,000 mm 0,0 UV-I 0 W/m 4,4 C 4,5 C 0,0 km/h (0 Bft) 100,00 %
19.11.2016 07:06 4,5 C 99 % 1010,7 hPa 0,0 l/m 0,0 km/h (0 Bft) NO 49 0 min 0,000 mm 0,0 UV-I 0 W/m 4,4 C 4,5 C 0,0 km/h (0 Bft) 100,00 %
19.11.2016 07:08 4,6 C 99 % 1010,6 hPa 0,0 l/m 1,1 km/h (1 Bft) NO 49 0 min 0,000 mm 0,0 UV-I 0 W/m 4,5 C 4,6 C 3,2 km/h (1 Bft) 100,00 %
19.11.2016 07:10 4,6 C 99 % 1010,5 hPa 0,0 l/m 1,6 km/h (1 Bft) NO 49 0 min 0,000 mm 0,0 UV-I 0 W/m 4,5 C 4,6 C 3,2 km/h (1 Bft) 100,00 %
19.11.2016 07:12 4,5 C 99 % 1010,4 hPa 0,0 l/m 1,6 km/h (1 Bft) NO 49 0 min 0,000 mm 0,0 UV-I 0 W/m 4,4 C 4,5 C 3,2 km/h (1 Bft) 100,00 %
19.11.2016 07:14 4,5 C 99 % 1010,4 hPa 0,0 l/m 2,5 km/h (1 Bft) NO 49 0 min 0,000 mm 0,0 UV-I 0 W/m 4,4 C 4,5 C 3,2 km/h (1 Bft) 100,00 %
19.11.2016 07:16 4,5 C 99 % 1010,4 hPa 0,0 l/m 1,8 km/h (1 Bft) NO 49 0 min 0,000 mm 0,0 UV-I 0 W/m 4,4 C 4,5 C 3,2 km/h (1 Bft) 100,00 %
19.11.2016 07:18 4,5 C 99 % 1010,4 hPa 0,0 l/m 1,3 km/h (1 Bft) NO 49 0 min 0,000 mm 0,0 UV-I 0 W/m 4,4 C 4,5 C 3,2 km/h (1 Bft) 100,00 %
19.11.2016 07:20 4,4 C 99 % 1010,4 hPa 0,0 l/m 0,1 km/h (0 Bft) NO 49 0 min 0,000 mm 0,0 UV-I 3 W/m 4,3 C 4,4 C 1,6 km/h (1 Bft) 100,00 %
19.11.2016 07:22 4,4 C 99 % 1010,5 hPa 0,0 l/m 0,0 km/h (0 Bft) NO 49 0 min 0,000 mm 0,0 UV-I 5 W/m 4,3 C 4,4 C 0,0 km/h (0 Bft) 100,00 %
19.11.2016 07:24 4,4 C 99 % 1010,5 hPa 0,0 l/m 0,0 km/h (0 Bft) NO 49 0 min 0,000 mm 0,0 UV-I 5 W/m 4,3 C 4,4 C 0,0 km/h (0 Bft) 100,00 %
19.11.2016 07:26 4,4 C 99 % 1010,5 hPa 0,0 l/m 0,0 km/h (0 Bft) NO 49 0 min 0,000 mm 0,0 UV-I 5 W/m 4,3 C 4,4 C 0,0 km/h (0 Bft) 98,11 %
19.11.2016 07:28 4,4 C 99 % 1010,4 hPa 0,0 l/m 0,0 km/h (0 Bft) NO 49 0 min 0,000 mm 0,0 UV-I 8 W/m 4,3 C 4,4 C 0,0 km/h (0 Bft) 100,00 %
19.11.2016 07:30 4,4 C 99 % 1010,4 hPa 0,0 l/m 0,3 km/h (0 Bft) NO 49 0 min 0,000 mm 0,0 UV-I 10 W/m 4,3 C 4,4 C 1,6 km/h (1 Bft) 97,92 %
19.11.2016 07:32 4,4 C 99 % 1010,4 hPa 0,0 l/m 0,0 km/h (0 Bft) NO 49 0 min 0,000 mm 0,0 UV-I 12 W/m 4,3 C 4,4 C 0,0 km/h (0 Bft) 97,30 %
19.11.2016 07:34 4,4 C 99 % 1010,3 hPa 0,0 l/m 0,0 km/h (0 Bft) NO 49 0 min 0,000 mm 0,0 UV-I 15 W/m 4,3 C 4,4 C 0,0 km/h (0 Bft) 100,00 %
19.11.2016 07:36 4,4 C 99 % 1010,2 hPa 0,0 l/m 0,0 km/h (0 Bft) NO 49 0 min 0,000 mm 0,0 UV-I 18 W/m 4,3 C 4,4 C 0,0 km/h (0 Bft) 97,87 %
19.11.2016 07:38 4,4 C 99 % 1010,1 hPa 0,0 l/m 0,0 km/h (0 Bft) NO 49 2 min 0,000 mm 0,0 UV-I 23 W/m 4,3 C 4,4 C 1,6 km/h (1 Bft) 95,74 %
19.11.2016 07:40 4,4 C 99 % 1010,1 hPa 0,0 l/m 0,0 km/h (0 Bft) NO 49 2 min 0,000 mm 0,0 UV-I 25 W/m 4,3 C 4,4 C 0,0 km/h (0 Bft) 97,73 %
19.11.2016 07:42 4,4 C 99 % 1010,0 hPa 0,0 l/m 0,0 km/h (0 Bft) NO 49 0 min 0,000 mm 0,0 UV-I 26 W/m 4,3 C 4,4 C 0,0 km/h (0 Bft) 97,87 %
19.11.2016 07:44 4,4 C 99 % 1010,0 hPa 0,0 l/m 0,0 km/h (0 Bft) NO 49 0 min 0,000 mm 0,0 UV-I 27 W/m 4,3 C 4,4 C 0,0 km/h (0 Bft) 95,74 %
19.11.2016 07:46 4,4 C 99 % 1010,0 hPa 0,0 l/m 0,5 km/h (0 Bft) NO 49 0 min 0,000 mm 0,0 UV-I 32 W/m 4,3 C 4,4 C 1,6 km/h (1 Bft) 98,00 %
19.11.2016 07:48 4,4 C 99 % 1010,1 hPa 0,0 l/m 0,0 km/h (0 Bft) NO 49 2 min 0,000 mm 0,0 UV-I 38 W/m 4,3 C 4,4 C 0,0 km/h (0 Bft) 97,87 %
19.11.2016 07:50 4,4 C 99 % 1010,1 hPa 0,0 l/m 0,0 km/h (0 Bft) NO 49 2 min 0,000 mm 0,0 UV-I 39 W/m 4,3 C 4,4 C 0,0 km/h (0 Bft) 96,00 %
19.11.2016 07:52 4,4 C 99 % 1010,1 hPa 0,0 l/m 0,0 km/h (0 Bft) NO 49 2 min 0,000 mm 0,0 UV-I 41 W/m 4,3 C 4,4 C 0,0 km/h (0 Bft) 95,83 %
19.11.2016 07:54 4,4 C 99 % 1010,1 hPa 0,0 l/m 0,0 km/h (0 Bft) NO 49 0 min 0,000 mm 0,0 UV-I 42 W/m 4,3 C 4,4 C 0,0 km/h (0 Bft) 100,00 %
19.11.2016 07:56 4,4 C 99 % 1010,1 hPa 0,0 l/m 0,0 km/h (0 Bft) NO 49 0 min 0,000 mm 0,0 UV-I 43 W/m 4,3 C 4,4 C 0,0 km/h (0 Bft) 95,74 %
19.11.2016 07:58 4,4 C 99 % 1010,0 hPa 0,0 l/m 0,0 km/h (0 Bft) NO 49 0 min 0,000 mm 0,0 UV-I 46 W/m 4,3 C 4,4 C 1,6 km/h (1 Bft) 94,00 %
19.11.2016 08:00 4,4 C 99 % 1010,0 hPa 0,0 l/m 0,0 km/h (0 Bft) NO 49 0 min 0,000 mm 0,0 UV-I 46 W/m 4,3 C 4,4 C 0,0 km/h (0 Bft) 95,74 %
19.11.2016 08:02 4,5 C 99 % 1010,0 hPa 0,0 l/m 1,4 km/h (1 Bft) NO 49 0 min 0,000 mm 0,0 UV-I 48 W/m 4,4 C 4,5 C 3,2 km/h (1 Bft) 95,74 %
19.11.2016 08:04 4,4 C 99 % 1010,0 hPa 0,0 l/m 2,5 km/h (1 Bft) NO 48 0 min 0,000 mm 0,0 UV-I 53 W/m 4,3 C 4,4 C 4,8 km/h (1 Bft) 97,14 %
19.11.2016 08:06 4,4 C 99 % 1010,0 hPa 0,0 l/m 1,6 km/h (1 Bft) NO 49 0 min 0,000 mm 0,0 UV-I 43 W/m 4,3 C 4,4 C 3,2 km/h (1 Bft) 98,11 %
19.11.2016 08:08 4,4 C 99 % 1009,8 hPa 0,0 l/m 0,2 km/h (0 Bft) NO 48 0 min 0,000 mm 0,0 UV-I 39 W/m 4,3 C 4,4 C 1,6 km/h (1 Bft) 98,11 %
19.11.2016 08:10 4,5 C 99 % 1009,9 hPa 0,0 l/m 0,0 km/h (0 Bft) NO 49 0 min 0,000 mm 0,0 UV-I 45 W/m 4,4 C 4,5 C 0,0 km/h (0 Bft) 94,00 %
19.11.2016 08:12 4,5 C 99 % 1010,0 hPa 0,0 l/m 0,5 km/h (0 Bft) NO 49 0 min 0,000 mm 0,0 UV-I 49 W/m 4,4 C 4,5 C 3,2 km/h (1 Bft) 100,00 %
19.11.2016 08:14 4,6 C 99 % 1010,0 hPa 0,0 l/m 1,5 km/h (1 Bft) NO 48 0 min 0,000 mm 0,0 UV-I 56 W/m 4,5 C 4,6 C 3,2 km/h (1 Bft) 96,00 %
19.11.2016 08:16 4,6 C 99 % 1010,0 hPa 0,0 l/m 2,7 km/h (1 Bft) N-NO 20 0 min 0,000 mm 0,0 UV-I 53 W/m 4,5 C 4,6 C 3,2 km/h (1 Bft) 100,00 %
19.11.2016 08:18 4,6 C 99 % 1010,0 hPa 0,0 l/m 1,6 km/h (1 Bft) N 5 0 min 0,000 mm 0,0 UV-I 55 W/m 4,5 C 4,6 C 3,2 km/h (1 Bft) 100,00 %
19.11.2016 08:20 4,6 C 99 % 1010,0 hPa 0,0 l/m 2,1 km/h (1 Bft) N 5 0 min 0,000 mm 0,0 UV-I 47 W/m 4,5 C 4,6 C 3,2 km/h (1 Bft) 100,00 %
19.11.2016 08:22 4,6 C 99 % 1010,0 hPa 0,0 l/m 0,2 km/h (0 Bft) N 5 0 min 0,000 mm 0,0 UV-I 40 W/m 4,5 C 4,6 C 1,6 km/h (1 Bft) 100,00 %
19.11.2016 08:24 4,6 C 99 % 1010,0 hPa 0,0 l/m 0,0 km/h (0 Bft) N 5 0 min 0,000 mm 0,0 UV-I 40 W/m 4,5 C 4,6 C 0,0 km/h (0 Bft) 97,14 %
19.11.2016 08:26 4,6 C 99 % 1010,0 hPa 0,0 l/m 2,5 km/h (1 Bft) N 10 0 min 0,000 mm 0,0 UV-I 41 W/m 4,5 C 4,6 C 3,2 km/h (1 Bft) 100,00 %
19.11.2016 08:28 4,6 C 99 % 1010,0 hPa 0,0 l/m 2,4 km/h (1 Bft) N 10 0 min 0,000 mm 0,0 UV-I 45 W/m 4,5 C 4,6 C 3,2 km/h (1 Bft) 100,00 %
19.11.2016 08:30 4,6 C 99 % 1010,0 hPa 0,0 l/m 3,3 km/h (1 Bft) W 277 0 min 0,000 mm 0,0 UV-I 44 W/m 4,5 C 4,6 C 4,8 km/h (1 Bft) 98,28 %
19.11.2016 08:32 4,6 C 99 % 1010,0 hPa 0,0 l/m 3,5 km/h (1 Bft) W 271 0 min 0,000 mm 0,0 UV-I 46 W/m 4,5 C 4,6 C 4,8 km/h (1 Bft) 97,87 %
19.11.2016 08:34 4,6 C 99 % 1010,0 hPa 0,0 l/m 2,9 km/h (1 Bft) W-SW 238 0 min 0,000 mm 0,0 UV-I 48 W/m 4,5 C 4,6 C 4,8 km/h (1 Bft) 100,00 %
19.11.2016 08:36 4,6 C 99 % 1009,9 hPa 0,0 l/m 3,8 km/h (1 Bft) SW 227 0 min 0,000 mm 0,0 UV-I 52 W/m 4,5 C 4,6 C 4,8 km/h (1 Bft) 97,87 %
19.11.2016 08:38 4,7 C 99 % 1009,9 hPa 0,0 l/m 3,9 km/h (1 Bft) SW 227 0 min 0,000 mm 0,0 UV-I 60 W/m 4,6 C 4,7 C 4,8 km/h (1 Bft) 100,00 %
19.11.2016 08:40 4,7 C 99 % 1009,8 hPa 0,0 l/m 3,0 km/h (1 Bft) SW 226 0 min 0,000 mm 0,0 UV-I 71 W/m 4,6 C 4,7 C 4,8 km/h (1 Bft) 100,00 %
19.11.2016 08:42 4,6 C 99 % 1009,9 hPa 0,0 l/m 3,1 km/h (1 Bft) W-SW 248 0 min 0,000 mm 0,0 UV-I 77 W/m 4,5 C 4,6 C 4,8 km/h (1 Bft) 100,00 %
19.11.2016 08:44 4,6 C 99 % 1010,0 hPa 0,0 l/m 4,4 km/h (1 Bft) SW 230 0 min 0,000 mm 0,0 UV-I 75 W/m 4,5 C 4,6 C 6,4 km/h (2 Bft) 100,00 %
19.11.2016 08:46 4,7 C 99 % 1010,0 hPa 0,0 l/m 4,9 km/h (1 Bft) SW 215 0 min 0,000 mm 0,0 UV-I 69 W/m 4,6 C 4,7 C 8,0 km/h (2 Bft) 100,00 %
19.11.2016 08:48 4,7 C 99 % 1010,0 hPa 0,0 l/m 4,0 km/h (1 Bft) SW 225 0 min 0,000 mm 0,0 UV-I 70 W/m 4,6 C 4,7 C 6,4 km/h (2 Bft) 97,87 %
19.11.2016 08:50 4,7 C 99 % 1009,9 hPa 0,0 l/m 3,5 km/h (1 Bft) SW 236 0 min 0,000 mm 0,0 UV-I 74 W/m 4,6 C 4,7 C 6,4 km/h (2 Bft) 100,00 %
19.11.2016 08:52 4,7 C 99 % 1009,8 hPa 0,0 l/m 2,3 km/h (1 Bft) SW 232 0 min 0,000 mm 0,0 UV-I 82 W/m 4,6 C 4,7 C 4,8 km/h (1 Bft) 100,00 %
19.11.2016 08:54 4,7 C 99 % 1009,8 hPa 0,0 l/m 1,5 km/h (1 Bft) SW 232 0 min 0,000 mm 0,0 UV-I 93 W/m 4,6 C 4,7 C 4,8 km/h (1 Bft) 100,00 %
19.11.2016 08:56 4,8 C 99 % 1009,8 hPa 0,0 l/m 3,4 km/h (1 Bft) SW 232 0 min 0,000 mm 0,0 UV-I 106 W/m 4,7 C 4,8 C 4,8 km/h (1 Bft) 100,00 %
19.11.2016 08:58 4,8 C 99 % 1009,8 hPa 0,0 l/m 5,8 km/h (2 Bft) SW 229 0 min 0,000 mm 0,0 UV-I 112 W/m 4,7 C 4,8 C 6,4 km/h (2 Bft) 100,00 %
19.11.2016 09:00 4,8 C 99 % 1009,8 hPa 0,0 l/m 4,6 km/h (1 Bft) SW 230 0 min 0,025 mm 0,0 UV-I 103 W/m 4,7 C 4,8 C 6,4 km/h (2 Bft) 100,00 %
19.11.2016 09:02 4,8 C 99 % 1009,9 hPa 0,0 l/m 2,6 km/h (1 Bft) S-SW 211 0 min 0,000 mm 0,0 UV-I 97 W/m 4,7 C 4,8 C 8,0 km/h (2 Bft) 100,00 %
19.11.2016 09:04 4,8 C 99 % 1009,8 hPa 0,0 l/m 5,2 km/h (1 Bft) SW 231 0 min 0,000 mm 0,0 UV-I 102 W/m 4,7 C 4,8 C 6,4 km/h (2 Bft) 100,00 %
19.11.2016 09:06 4,8 C 99 % 1009,7 hPa 0,0 l/m 5,4 km/h (1 Bft) W 263 0 min 0,000 mm 0,0 UV-I 107 W/m 4,7 C 4,8 C 6,4 km/h (2 Bft) 100,00 %
19.11.2016 09:08 4,9 C 99 % 1009,8 hPa 0,0 l/m 4,8 km/h (1 Bft) W-SW 250 0 min 0,000 mm 0,0 UV-I 110 W/m 4,8 C 4,9 C 6,4 km/h (2 Bft) 100,00 %
19.11.2016 09:10 5,0 C 99 % 1010,0 hPa 0,0 l/m 4,3 km/h (1 Bft) SW 234 0 min 0,000 mm 0,0 UV-I 104 W/m 4,9 C 5,0 C 6,4 km/h (2 Bft) 100,00 %
19.11.2016 09:12 5,0 C 99 % 1009,8 hPa 0,0 l/m 5,4 km/h (1 Bft) SW 233 0 min 0,000 mm 0,0 UV-I 90 W/m 4,9 C 5,0 C 6,4 km/h (2 Bft) 98,00 %
19.11.2016 09:14 5,0 C 99 % 1009,8 hPa 0,0 l/m 5,0 km/h (1 Bft) SW 236 0 min 0,000 mm 0,0 UV-I 85 W/m 4,9 C 5,0 C 8,0 km/h (2 Bft) 100,00 %
19.11.2016 09:16 5,1 C 99 % 1009,7 hPa 0,0 l/m 4,5 km/h (1 Bft) SW 236 0 min 0,000 mm 0,0 UV-I 84 W/m 5,0 C 5,1 C 6,4 km/h (2 Bft) 100,00 %
19.11.2016 09:18 5,0 C 99 % 1009,8 hPa 0,0 l/m 4,4 km/h (1 Bft) SW 236 0 min 0,000 mm 0,0 UV-I 84 W/m 4,9 C 5,0 C 6,4 km/h (2 Bft) 100,00 %
19.11.2016 09:20 5,1 C 99 % 1009,7 hPa 0,0 l/m 4,4 km/h (1 Bft) SW 232 0 min 0,000 mm 0,0 UV-I 79 W/m 5,0 C 5,1 C 6,4 km/h (2 Bft) 98,00 %
19.11.2016 09:22 5,1 C 99 % 1009,7 hPa 0,0 l/m 5,3 km/h (1 Bft) SW 228 0 min 0,000 mm 0,0 UV-I 80 W/m 5,0 C 5,1 C 8,0 km/h (2 Bft) 100,00 %
19.11.2016 09:24 5,1 C 99 % 1009,7 hPa 0,0 l/m 3,2 km/h (1 Bft) SW 227 0 min 0,000 mm 0,0 UV-I 78 W/m 5,0 C 5,1 C 6,4 km/h (2 Bft) 100,00 %
19.11.2016 09:26 5,1 C 99 % 1009,6 hPa 0,0 l/m 3,1 km/h (1 Bft) SW 227 0 min 0,000 mm 0,0 UV-I 77 W/m 5,0 C 5,1 C 6,4 km/h (2 Bft) 100,00 %
19.11.2016 09:28 5,1 C 99 % 1009,5 hPa 0,0 l/m 3,4 km/h (1 Bft) SW 227 0 min 0,000 mm 0,0 UV-I 76 W/m 5,0 C 5,1 C 6,4 km/h (2 Bft) 100,00 %
19.11.2016 09:30 5,2 C 99 % 1009,4 hPa 0,0 l/m 2,1 km/h (1 Bft) SW 227 0 min 0,000 mm 0,0 UV-I 75 W/m 5,1 C 5,2 C 3,2 km/h (1 Bft) 100,00 %
19.11.2016 09:32 5,2 C 99 % 1009,4 hPa 0,0 l/m 3,9 km/h (1 Bft) SW 225 0 min 0,000 mm 0,0 UV-I 76 W/m 5,1 C 5,2 C 8,0 km/h (2 Bft) 100,00 %
19.11.2016 09:34 5,2 C 99 % 1009,4 hPa 0,0 l/m 3,0 km/h (1 Bft) SW 225 0 min 0,000 mm 0,0 UV-I 75 W/m 5,1 C 5,2 C 4,8 km/h (1 Bft) 97,56 %
19.11.2016 09:36 5,2 C 99 % 1009,4 hPa 0,0 l/m 5,8 km/h (2 Bft) SW 231 0 min 0,000 mm 0,0 UV-I 78 W/m 5,1 C 5,2 C 8,0 km/h (2 Bft) 100,00 %
19.11.2016 09:38 5,2 C 99 % 1009,3 hPa 0,0 l/m 5,1 km/h (1 Bft) SW 234 0 min 0,000 mm 0,0 UV-I 78 W/m 5,1 C 5,2 C 6,4 km/h (2 Bft) 100,00 %
19.11.2016 09:40 5,2 C 99 % 1009,4 hPa 0,0 l/m 6,1 km/h (2 Bft) SW 236 0 min 0,000 mm 0,0 UV-I 71 W/m 5,1 C 5,2 C 8,0 km/h (2 Bft) 97,37 %
19.11.2016 09:42 5,2 C 99 % 1009,4 hPa 0,0 l/m 6,2 km/h (2 Bft) SW 231 0 min 0,000 mm 0,0 UV-I 61 W/m 5,1 C 5,2 C 8,0 km/h (2 Bft) 97,87 %
19.11.2016 09:44 5,2 C 99 % 1009,5 hPa 0,0 l/m 4,5 km/h (1 Bft) SW 234 0 min 0,000 mm 0,0 UV-I 60 W/m 5,1 C 5,2 C 6,4 km/h (2 Bft) 98,00 %
19.11.2016 09:46 5,3 C 99 % 1009,5 hPa 0,0 l/m 4,8 km/h (1 Bft) W-SW 252 0 min 0,000 mm 0,0 UV-I 59 W/m 5,2 C 5,3 C 6,4 km/h (2 Bft) 98,00 %
19.11.2016 09:48 5,3 C 99 % 1009,5 hPa 0,0 l/m 4,7 km/h (1 Bft) W-SW 252 0 min 0,000 mm 0,0 UV-I 53 W/m 5,2 C 5,3 C 6,4 km/h (2 Bft) 92,59 %
19.11.2016 09:50 5,3 C 99 % 1009,5 hPa 0,0 l/m 5,6 km/h (1 Bft) SW 232 0 min 0,000 mm 0,0 UV-I 50 W/m 5,2 C 5,3 C 8,0 km/h (2 Bft) 98,51 %
19.11.2016 09:52 5,3 C 99 % 1009,4 hPa 0,0 l/m 5,8 km/h (2 Bft) W-SW 248 0 min 0,000 mm 0,0 UV-I 55 W/m 5,2 C 5,3 C 8,0 km/h (2 Bft) 97,44 %
19.11.2016 09:54 5,3 C 99 % 1009,4 hPa 0,0 l/m 2,9 km/h (1 Bft) W-SW 248 0 min 0,000 mm 0,0 UV-I 61 W/m 5,2 C 5,3 C 4,8 km/h (1 Bft) 96,00 %
19.11.2016 09:56 5,3 C 99 % 1009,3 hPa 0,0 l/m 3,3 km/h (1 Bft) W-SW 248 0 min 0,000 mm 0,0 UV-I 68 W/m 5,2 C 5,3 C 4,8 km/h (1 Bft) 96,00 %
19.11.2016 09:58 5,3 C 99 % 1009,2 hPa 0,0 l/m 3,4 km/h (1 Bft) W-SW 248 0 min 0,000 mm 0,0 UV-I 72 W/m 5,2 C 5,3 C 4,8 km/h (1 Bft) 98,00 %
19.11.2016 10:00 5,3 C 99 % 1009,2 hPa 0,0 l/m 0,7 km/h (0 Bft) W-SW 248 0 min 0,026 mm 0,0 UV-I 77 W/m 5,2 C 5,3 C 3,2 km/h (1 Bft) 94,74 %
19.11.2016 10:02 5,4 C 99 % 1009,2 hPa 0,0 l/m 1,3 km/h (1 Bft) W-SW 248 0 min 0,000 mm 0,0 UV-I 78 W/m 5,3 C 5,4 C 3,2 km/h (1 Bft) 96,23 %
19.11.2016 10:04 5,4 C 99 % 1009,1 hPa 0,0 l/m 3,0 km/h (1 Bft) W-SW 251 0 min 0,000 mm 0,0 UV-I 84 W/m 5,3 C 5,4 C 4,8 km/h (1 Bft) 98,00 %
19.11.2016 10:06 5,4 C 99 % 1009,2 hPa 0,0 l/m 3,9 km/h (1 Bft) W-SW 251 0 min 0,000 mm 0,0 UV-I 92 W/m 5,3 C 5,4 C 4,8 km/h (1 Bft) 97,37 %
19.11.2016 10:08 5,4 C 99 % 1009,3 hPa 0,0 l/m 4,2 km/h (1 Bft) W-SW 255 0 min 0,000 mm 0,0 UV-I 94 W/m 5,3 C 5,4 C 6,4 km/h (2 Bft) 98,00 %
19.11.2016 10:10 5,5 C 99 % 1009,4 hPa 0,0 l/m 4,3 km/h (1 Bft) W-SW 255 0 min 0,000 mm 0,0 UV-I 79 W/m 5,4 C 5,5 C 6,4 km/h (2 Bft) 97,87 %
19.11.2016 10:12 5,6 C 99 % 1009,4 hPa 0,0 l/m 3,3 km/h (1 Bft) W-SW 255 0 min 0,000 mm 0,0 UV-I 70 W/m 5,5 C 5,6 C 6,4 km/h (2 Bft) 96,00 %
19.11.2016 10:14 5,5 C 99 % 1009,2 hPa 0,0 l/m 5,2 km/h (1 Bft) W-SW 255 0 min 0,000 mm 0,0 UV-I 70 W/m 5,4 C 5,5 C 6,4 km/h (2 Bft) 97,56 %
19.11.2016 10:16 5,5 C 99 % 1009,1 hPa 0,0 l/m 2,7 km/h (1 Bft) W-SW 255 0 min 0,000 mm 0,0 UV-I 73 W/m 5,4 C 5,5 C 4,8 km/h (1 Bft) 100,00 %
19.11.2016 10:18 5,5 C 99 % 1009,2 hPa 0,0 l/m 0,3 km/h (0 Bft) W-SW 255 0 min 0,000 mm 0,0 UV-I 76 W/m 5,4 C 5,5 C 1,6 km/h (1 Bft) 97,87 %
19.11.2016 10:20 5,6 C 99 % 1009,2 hPa 0,0 l/m 0,0 km/h (0 Bft) W-SW 255 0 min 0,000 mm 0,0 UV-I 72 W/m 5,5 C 5,6 C 0,0 km/h (0 Bft) 100,00 %
19.11.2016 10:22 5,6 C 99 % 1009,1 hPa 0,0 l/m 0,0 km/h (0 Bft) W-SW 255 0 min 0,000 mm 0,0 UV-I 68 W/m 5,5 C 5,6 C 0,0 km/h (0 Bft) 100,00 %
19.11.2016 10:24 5,7 C 99 % 1009,1 hPa 0,0 l/m 0,0 km/h (0 Bft) W-SW 255 0 min 0,000 mm 0,0 UV-I 67 W/m 5,6 C 5,7 C 0,0 km/h (0 Bft) 100,00 %
19.11.2016 10:26 5,7 C 99 % 1009,0 hPa 0,0 l/m 0,0 km/h (0 Bft) W-SW 255 0 min 0,000 mm 0,0 UV-I 69 W/m 5,6 C 5,7 C 1,6 km/h (1 Bft) 100,00 %
19.11.2016 10:28 5,7 C 99 % 1008,9 hPa 0,0 l/m 0,0 km/h (0 Bft) W-SW 255 0 min 0,000 mm 0,0 UV-I 70 W/m 5,6 C 5,7 C 0,0 km/h (0 Bft) 97,87 %
19.11.2016 10:30 5,7 C 99 % 1008,8 hPa 0,0 l/m 0,1 km/h (0 Bft) W-SW 255 0 min 0,000 mm 0,0 UV-I 69 W/m 5,6 C 5,7 C 1,6 km/h (1 Bft) 100,00 %
19.11.2016 10:32 5,7 C 99 % 1009,0 hPa 0,0 l/m 2,2 km/h (1 Bft) W 259 0 min 0,000 mm 0,0 UV-I 64 W/m 5,6 C 5,7 C 3,2 km/h (1 Bft) 100,00 %
19.11.2016 10:34 5,8 C 99 % 1009,1 hPa 0,0 l/m 3,1 km/h (1 Bft) W 267 0 min 0,000 mm 0,0 UV-I 60 W/m 5,7 C 5,8 C 4,8 km/h (1 Bft) 100,00 %
19.11.2016 10:36 5,8 C 99 % 1009,0 hPa 0,0 l/m 0,2 km/h (0 Bft) W 267 0 min 0,000 mm 0,0 UV-I 57 W/m 5,7 C 5,8 C 1,6 km/h (1 Bft) 100,00 %
19.11.2016 10:38 5,8 C 99 % 1008,8 hPa 0,0 l/m 0,2 km/h (0 Bft) W 267 0 min 0,000 mm 0,0 UV-I 60 W/m 5,7 C 5,8 C 1,6 km/h (1 Bft) 100,00 %
19.11.2016 10:40 5,8 C 99 % 1008,8 hPa 0,0 l/m 0,8 km/h (0 Bft) W 267 0 min 0,000 mm 0,0 UV-I 55 W/m 5,7 C 5,8 C 3,2 km/h (1 Bft) 100,00 %
19.11.2016 10:42 5,8 C 99 % 1009,0 hPa 0,0 l/m 1,1 km/h (1 Bft) W 267 0 min 0,000 mm 0,0 UV-I 46 W/m 5,7 C 5,8 C 3,2 km/h (1 Bft) 100,00 %
19.11.2016 10:44 5,8 C 99 % 1008,9 hPa 0,0 l/m 0,9 km/h (0 Bft) W 267 0 min 0,000 mm 0,0 UV-I 36 W/m 5,7 C 5,8 C 3,2 km/h (1 Bft) 100,00 %
19.11.2016 10:46 5,9 C 99 % 1008,8 hPa 0,0 l/m 1,4 km/h (1 Bft) W 267 0 min 0,000 mm 0,0 UV-I 32 W/m 5,8 C 5,9 C 3,2 km/h (1 Bft) 100,00 %
19.11.2016 10:48 5,9 C 99 % 1008,8 hPa 0,0 l/m 1,2 km/h (1 Bft) W 267 0 min 0,000 mm 0,0 UV-I 32 W/m 5,8 C 5,9 C 3,2 km/h (1 Bft) 100,00 %
19.11.2016 10:50 5,8 C 99 % 1008,7 hPa 0,0 l/m 0,2 km/h (0 Bft) W 267 0 min 0,000 mm 0,0 UV-I 36 W/m 5,7 C 5,8 C 1,6 km/h (1 Bft) 97,87 %
19.11.2016 10:52 5,8 C 99 % 1008,8 hPa 0,0 l/m 0,0 km/h (0 Bft) W 267 0 min 0,000 mm 0,0 UV-I 37 W/m 5,7 C 5,8 C 0,0 km/h (0 Bft) 98,21 %
19.11.2016 10:54 5,8 C 99 % 1008,8 hPa 0,0 l/m 0,3 km/h (0 Bft) W 267 0 min 0,000 mm 0,0 UV-I 37 W/m 5,7 C 5,8 C 1,6 km/h (1 Bft) 100,00 %
19.11.2016 10:56 5,8 C 99 % 1008,8 hPa 0,0 l/m 2,5 km/h (1 Bft) W 267 0 min 0,000 mm 0,0 UV-I 37 W/m 5,7 C 5,8 C 3,2 km/h (1 Bft) 100,00 %
19.11.2016 10:58 5,8 C 99 % 1008,7 hPa 0,0 l/m 0,7 km/h (0 Bft) W 267 0 min 0,000 mm 0,0 UV-I 39 W/m 5,7 C 5,8 C 3,2 km/h (1 Bft) 100,00 %
19.11.2016 11:00 5,8 C 99 % 1008,6 hPa 0,0 l/m 0,0 km/h (0 Bft) W 267 0 min 0,025 mm 0,0 UV-I 40 W/m 5,7 C 5,8 C 0,0 km/h (0 Bft) 100,00 %
19.11.2016 11:02 5,8 C 99 % 1008,6 hPa 0,0 l/m 1,1 km/h (1 Bft) W 267 0 min 0,000 mm 0,0 UV-I 39 W/m 5,7 C 5,8 C 3,2 km/h (1 Bft) 100,00 %
19.11.2016 11:04 5,9 C 99 % 1008,6 hPa 0,0 l/m 0,6 km/h (0 Bft) W 267 0 min 0,000 mm 0,0 UV-I 38 W/m 5,8 C 5,9 C 1,6 km/h (1 Bft) 100,00 %
19.11.2016 11:06 5,9 C 99 % 1008,6 hPa 0,0 l/m 1,8 km/h (1 Bft) W 267 0 min 0,000 mm 0,0 UV-I 37 W/m 5,8 C 5,9 C 3,2 km/h (1 Bft) 100,00 %
19.11.2016 11:08 5,9 C 99 % 1008,7 hPa 0,0 l/m 3,1 km/h (1 Bft) W 267 0 min 0,000 mm 0,0 UV-I 38 W/m 5,8 C 5,9 C 4,8 km/h (1 Bft) 100,00 %
19.11.2016 11:10 5,9 C 99 % 1008,8 hPa 0,0 l/m 2,9 km/h (1 Bft) W 266 0 min 0,000 mm 0,0 UV-I 39 W/m 5,8 C 5,9 C 4,8 km/h (1 Bft) 100,00 %
19.11.2016 11:12 5,9 C 99 % 1008,7 hPa 0,0 l/m 3,5 km/h (1 Bft) W 261 0 min 0,000 mm 0,0 UV-I 39 W/m 5,8 C 5,9 C 6,4 km/h (2 Bft) 100,00 %
19.11.2016 11:14 5,9 C 99 % 1008,6 hPa 0,0 l/m 3,3 km/h (1 Bft) W-SW 252 0 min 0,000 mm 0,0 UV-I 40 W/m 5,8 C 5,9 C 6,4 km/h (2 Bft) 100,00 %
19.11.2016 11:16 5,8 C 99 % 1008,5 hPa 0,0 l/m 2,3 km/h (1 Bft) W-SW 252 0 min 0,000 mm 0,0 UV-I 43 W/m 5,7 C 5,8 C 4,8 km/h (1 Bft) 100,00 %
19.11.2016 11:18 5,8 C 99 % 1008,5 hPa 0,0 l/m 1,7 km/h (1 Bft) W-SW 252 0 min 0,000 mm 0,0 UV-I 44 W/m 5,7 C 5,8 C 3,2 km/h (1 Bft) 100,00 %
19.11.2016 11:20 5,8 C 99 % 1008,5 hPa 0,0 l/m 3,7 km/h (1 Bft) W-SW 252 0 min 0,000 mm 0,0 UV-I 44 W/m 5,7 C 5,8 C 4,8 km/h (1 Bft) 100,00 %
19.11.2016 11:22 5,8 C 99 % 1008,6 hPa 0,0 l/m 4,2 km/h (1 Bft) W-SW 252 0 min 0,000 mm 0,0 UV-I 43 W/m 5,7 C 5,8 C 6,4 km/h (2 Bft) 98,00 %
19.11.2016 11:24 5,9 C 99 % 1008,6 hPa 0,0 l/m 1,6 km/h (1 Bft) W-SW 252 0 min 0,000 mm 0,0 UV-I 40 W/m 5,8 C 5,9 C 3,2 km/h (1 Bft) 98,11 %
19.11.2016 11:26 5,9 C 99 % 1008,5 hPa 0,0 l/m 4,0 km/h (1 Bft) SW 235 0 min 0,000 mm 0,0 UV-I 40 W/m 5,8 C 5,9 C 6,4 km/h (2 Bft) 100,00 %
19.11.2016 11:28 5,9 C 99 % 1008,4 hPa 0,0 l/m 2,8 km/h (1 Bft) SW 235 0 min 0,000 mm 0,0 UV-I 44 W/m 5,8 C 5,9 C 4,8 km/h (1 Bft) 100,00 %
19.11.2016 11:30 5,9 C 99 % 1008,4 hPa 0,0 l/m 2,3 km/h (1 Bft) SW 235 0 min 0,000 mm 0,0 UV-I 43 W/m 5,8 C 5,9 C 4,8 km/h (1 Bft) 100,00 %
19.11.2016 11:32 5,9 C 99 % 1008,4 hPa 0,0 l/m 3,1 km/h (1 Bft) SW 235 0 min 0,000 mm 0,0 UV-I 42 W/m 5,8 C 5,9 C 4,8 km/h (1 Bft) 100,00 %
19.11.2016 11:34 5,9 C 99 % 1008,5 hPa 0,0 l/m 3,6 km/h (1 Bft) SW 234 0 min 0,000 mm 0,0 UV-I 39 W/m 5,8 C 5,9 C 6,4 km/h (2 Bft) 100,00 %
19.11.2016 11:36 5,9 C 99 % 1008,4 hPa 0,0 l/m 3,3 km/h (1 Bft) SW 234 0 min 0,000 mm 0,0 UV-I 35 W/m 5,8 C 5,9 C 6,4 km/h (2 Bft) 100,00 %
19.11.2016 11:38 5,9 C 99 % 1008,2 hPa 0,0 l/m 1,3 km/h (1 Bft) SW 234 0 min 0,000 mm 0,0 UV-I 36 W/m 5,8 C 5,9 C 3,2 km/h (1 Bft) 98,00 %
19.11.2016 11:40 5,9 C 99 % 1008,2 hPa 0,0 l/m 1,0 km/h (0 Bft) SW 235 0 min 0,000 mm 0,0 UV-I 39 W/m 5,8 C 5,9 C 3,2 km/h (1 Bft) 97,37 %
19.11.2016 11:42 5,9 C 99 % 1008,3 hPa 0,0 l/m 3,3 km/h (1 Bft) SW 235 0 min 0,000 mm 0,0 UV-I 38 W/m 5,8 C 5,9 C 4,8 km/h (1 Bft) 100,00 %
19.11.2016 11:44 6,0 C 99 % 1008,3 hPa 0,0 l/m 2,4 km/h (1 Bft) SW 234 0 min 0,000 mm 0,0 UV-I 37 W/m 5,9 C 6,0 C 4,8 km/h (1 Bft) 100,00 %
19.11.2016 11:46 6,0 C 99 % 1008,1 hPa 0,0 l/m 1,3 km/h (1 Bft) SW 235 0 min 0,000 mm 0,0 UV-I 41 W/m 5,9 C 6,0 C 4,8 km/h (1 Bft) 95,24 %
19.11.2016 11:48 6,0 C 99 % 1008,0 hPa 0,0 l/m 1,1 km/h (1 Bft) SW 234 0 min 0,000 mm 0,0 UV-I 46 W/m 5,9 C 6,0 C 3,2 km/h (1 Bft) 98,08 %
19.11.2016 11:50 6,0 C 99 % 1008,0 hPa 0,0 l/m 0,3 km/h (0 Bft) SW 234 0 min 0,000 mm 0,0 UV-I 49 W/m 5,9 C 6,0 C 1,6 km/h (1 Bft) 98,00 %
19.11.2016 11:52 6,0 C 99 % 1008,0 hPa 0,0 l/m 1,4 km/h (1 Bft) SW 234 0 min 0,000 mm 0,0 UV-I 47 W/m 5,9 C 6,0 C 4,8 km/h (1 Bft) 97,44 %
19.11.2016 11:54 6,0 C 99 % 1008,1 hPa 0,0 l/m 3,9 km/h (1 Bft) SW 234 0 min 0,000 mm 0,0 UV-I 43 W/m 5,9 C 6,0 C 4,8 km/h (1 Bft) 98,00 %
19.11.2016 11:56 6,1 C 99 % 1008,2 hPa 0,0 l/m 4,6 km/h (1 Bft) SW 232 0 min 0,000 mm 0,0 UV-I 40 W/m 6,0 C 6,1 C 8,0 km/h (2 Bft) 97,87 %
19.11.2016 11:58 6,1 C 99 % 1008,3 hPa 0,0 l/m 5,3 km/h (1 Bft) SW 230 0 min 0,000 mm 0,0 UV-I 40 W/m 6,0 C 6,1 C 8,0 km/h (2 Bft) 95,74 %
19.11.2016 12:00 6,1 C 99 % 1008,3 hPa 0,0 l/m 4,3 km/h (1 Bft) SW 231 0 min 0,026 mm 0,0 UV-I 37 W/m 6,0 C 6,1 C 6,4 km/h (2 Bft) 96,23 %
19.11.2016 12:02 6,0 C 99 % 1008,1 hPa 0,0 l/m 3,4 km/h (1 Bft) SW 231 0 min 0,000 mm 0,0 UV-I 38 W/m 5,9 C 6,0 C 4,8 km/h (1 Bft) 94,74 %
19.11.2016 12:04 6,0 C 99 % 1008,0 hPa 0,0 l/m 2,9 km/h (1 Bft) SW 231 0 min 0,000 mm 0,0 UV-I 38 W/m 5,9 C 6,0 C 4,8 km/h (1 Bft) 97,87 %
19.11.2016 12:06 6,0 C 99 % 1008,1 hPa 0,0 l/m 5,1 km/h (1 Bft) SW 231 0 min 0,000 mm 0,0 UV-I 34 W/m 5,9 C 6,0 C 8,0 km/h (2 Bft) 96,00 %
19.11.2016 12:08 6,0 C 99 % 1008,1 hPa 0,0 l/m 4,1 km/h (1 Bft) SW 228 0 min 0,000 mm 0,0 UV-I 33 W/m 5,9 C 6,0 C 6,4 km/h (2 Bft) 97,87 %
19.11.2016 12:10 6,0 C 99 % 1008,1 hPa 0,0 l/m 6,2 km/h (2 Bft) SW 217 0 min 0,000 mm 0,0 UV-I 35 W/m 5,9 C 6,0 C 9,7 km/h (2 Bft) 97,87 %
19.11.2016 12:12 6,0 C 99 % 1008,1 hPa 0,0 l/m 5,0 km/h (1 Bft) SW 217 0 min 0,000 mm 0,0 UV-I 35 W/m 5,9 C 6,0 C 6,4 km/h (2 Bft) 97,87 %
19.11.2016 12:14 6,0 C 99 % 1007,9 hPa 0,0 l/m 4,4 km/h (1 Bft) SW 217 0 min 0,000 mm 0,0 UV-I 39 W/m 5,9 C 6,0 C 6,4 km/h (2 Bft) 97,73 %
19.11.2016 12:16 6,0 C 99 % 1008,0 hPa 0,0 l/m 4,8 km/h (1 Bft) SW 217 0 min 0,000 mm 0,0 UV-I 39 W/m 5,9 C 6,0 C 8,0 km/h (2 Bft) 96,23 %
19.11.2016 12:18 6,1 C 99 % 1008,1 hPa 0,0 l/m 3,3 km/h (1 Bft) S-SW 212 0 min 0,000 mm 0,0 UV-I 40 W/m 6,0 C 6,1 C 6,4 km/h (2 Bft) 97,87 %
19.11.2016 12:20 6,1 C 99 % 1008,0 hPa 0,0 l/m 5,6 km/h (1 Bft) SW 214 0 min 0,000 mm 0,0 UV-I 41 W/m 6,0 C 6,1 C 8,0 km/h (2 Bft) 100,00 %
19.11.2016 12:22 6,1 C 99 % 1008,1 hPa 0,0 l/m 4,8 km/h (1 Bft) SW 214 0 min 0,000 mm 0,0 UV-I 40 W/m 6,0 C 6,1 C 8,0 km/h (2 Bft) 100,00 %
19.11.2016 12:24 6,1 C 99 % 1008,2 hPa 0,0 l/m 5,4 km/h (1 Bft) SW 223 0 min 0,000 mm 0,0 UV-I 39 W/m 6,0 C 6,1 C 8,0 km/h (2 Bft) 96,00 %
19.11.2016 12:26 6,1 C 99 % 1008,2 hPa 0,0 l/m 6,4 km/h (2 Bft) W-SW 241 0 min 0,000 mm 0,0 UV-I 37 W/m 6,0 C 6,1 C 11,3 km/h (2 Bft) 100,00 %
19.11.2016 12:28 6,1 C 99 % 1008,3 hPa 0,0 l/m 6,0 km/h (2 Bft) SW 215 0 min 0,000 mm 0,0 UV-I 39 W/m 6,0 C 6,1 C 9,7 km/h (2 Bft) 100,00 %
19.11.2016 12:30 6,1 C 99 % 1008,3 hPa 0,0 l/m 5,7 km/h (1 Bft) SW 228 0 min 0,000 mm 0,0 UV-I 39 W/m 6,0 C 6,1 C 9,7 km/h (2 Bft) 98,08 %
19.11.2016 12:32 6,1 C 99 % 1008,3 hPa 0,0 l/m 6,4 km/h (2 Bft) SW 214 0 min 0,000 mm 0,0 UV-I 40 W/m 6,0 C 6,1 C 9,7 km/h (2 Bft) 100,00 %
19.11.2016 12:34 6,2 C 99 % 1008,1 hPa 0,0 l/m 5,0 km/h (1 Bft) S-SW 209 0 min 0,000 mm 0,0 UV-I 40 W/m 6,1 C 6,2 C 9,7 km/h (2 Bft) 100,00 %
19.11.2016 12:36 6,2 C 99 % 1008,1 hPa 0,0 l/m 4,1 km/h (1 Bft) S-SW 212 0 min 0,000 mm 0,0 UV-I 39 W/m 6,1 C 6,2 C 6,4 km/h (2 Bft) 100,00 %
19.11.2016 12:38 6,2 C 99 % 1008,2 hPa 0,0 l/m 4,3 km/h (1 Bft) S-SW 212 0 min 0,000 mm 0,0 UV-I 38 W/m 6,1 C 6,2 C 6,4 km/h (2 Bft) 100,00 %
19.11.2016 12:40 6,2 C 99 % 1008,3 hPa 0,0 l/m 5,5 km/h (1 Bft) SW 223 0 min 0,000 mm 0,0 UV-I 39 W/m 6,1 C 6,2 C 9,7 km/h (2 Bft) 100,00 %
19.11.2016 12:42 6,2 C 99 % 1008,4 hPa 0,0 l/m 6,1 km/h (2 Bft) SW 221 0 min 0,000 mm 0,0 UV-I 40 W/m 6,1 C 6,2 C 9,7 km/h (2 Bft) 98,11 %
19.11.2016 12:44 6,2 C 99 % 1008,5 hPa 0,0 l/m 6,1 km/h (2 Bft) SW 234 0 min 0,000 mm 0,0 UV-I 43 W/m 6,1 C 6,2 C 9,7 km/h (2 Bft) 98,00 %
19.11.2016 12:46 6,2 C 99 % 1008,4 hPa 0,0 l/m 6,8 km/h (2 Bft) SW 227 0 min 0,000 mm 0,0 UV-I 46 W/m 6,1 C 5,9 C 9,7 km/h (2 Bft) 100,00 %
19.11.2016 12:48 6,2 C 99 % 1008,4 hPa 0,0 l/m 8,6 km/h (2 Bft) SW 223 0 min 0,000 mm 0,0 UV-I 46 W/m 6,1 C 4,4 C 12,9 km/h (3 Bft) 100,00 %
19.11.2016 12:50 6,2 C 99 % 1008,4 hPa 0,0 l/m 6,9 km/h (2 Bft) S-SW 212 0 min 0,000 mm 0,0 UV-I 42 W/m 6,1 C 5,8 C 9,7 km/h (2 Bft) 100,00 %
19.11.2016 12:52 6,3 C 99 % 1008,4 hPa 0,0 l/m 6,7 km/h (2 Bft) SW 234 0 min 0,000 mm 0,0 UV-I 41 W/m 6,2 C 6,1 C 9,7 km/h (2 Bft) 98,00 %
19.11.2016 12:54 6,3 C 99 % 1008,5 hPa 0,0 l/m 6,2 km/h (2 Bft) SW 236 0 min 0,000 mm 0,0 UV-I 38 W/m 6,2 C 6,3 C 9,7 km/h (2 Bft) 100,00 %
19.11.2016 12:56 6,3 C 99 % 1008,5 hPa 0,0 l/m 10,1 km/h (2 Bft) SW 232 0 min 0,000 mm 0,0 UV-I 36 W/m 6,2 C 3,4 C 14,5 km/h (3 Bft) 98,00 %
19.11.2016 12:58 6,3 C 99 % 1008,4 hPa 0,0 l/m 8,6 km/h (2 Bft) SW 227 0 min 0,000 mm 0,0 UV-I 37 W/m 6,2 C 4,5 C 12,9 km/h (3 Bft) 100,00 %
19.11.2016 13:00 6,3 C 99 % 1008,4 hPa 0,0 l/m 8,4 km/h (2 Bft) W 265 0 min 0,025 mm 0,0 UV-I 39 W/m 6,2 C 4,7 C 12,9 km/h (3 Bft) 100,00 %
19.11.2016 13:02 6,3 C 99 % 1008,4 hPa 0,0 l/m 8,9 km/h (2 Bft) S-SW 209 0 min 0,000 mm 0,0 UV-I 42 W/m 6,2 C 4,3 C 16,1 km/h (3 Bft) 100,00 %
19.11.2016 13:04 6,3 C 99 % 1008,5 hPa 0,0 l/m 8,9 km/h (2 Bft) W-SW 242 0 min 0,000 mm 0,0 UV-I 43 W/m 6,2 C 4,3 C 12,9 km/h (3 Bft) 100,00 %
19.11.2016 13:06 6,3 C 99 % 1008,6 hPa 0,0 l/m 8,7 km/h (2 Bft) W-SW 240 0 min 0,000 mm 0,0 UV-I 42 W/m 6,2 C 4,4 C 12,9 km/h (3 Bft) 100,00 %
19.11.2016 13:08 6,4 C 99 % 1008,5 hPa 0,0 l/m 8,3 km/h (2 Bft) S-SW 207 0 min 0,000 mm 0,0 UV-I 44 W/m 6,3 C 4,8 C 11,3 km/h (2 Bft) 100,00 %
19.11.2016 13:10 6,4 C 99 % 1008,5 hPa 0,0 l/m 9,9 km/h (2 Bft) SW 223 0 min 0,000 mm 0,0 UV-I 45 W/m 6,3 C 3,7 C 14,5 km/h (3 Bft) 97,44 %
19.11.2016 13:12 6,4 C 99 % 1008,6 hPa 0,0 l/m 9,9 km/h (2 Bft) S-SW 209 0 min 0,000 mm 0,0 UV-I 46 W/m 6,3 C 3,7 C 14,5 km/h (3 Bft) 100,00 %
19.11.2016 13:14 6,4 C 99 % 1008,7 hPa 0,0 l/m 9,3 km/h (2 Bft) SW 236 0 min 0,000 mm 0,0 UV-I 50 W/m 6,3 C 4,1 C 16,1 km/h (3 Bft) 100,00 %
19.11.2016 13:16 6,4 C 99 % 1008,6 hPa 0,0 l/m 9,2 km/h (2 Bft) W-SW 248 0 min 0,000 mm 0,0 UV-I 55 W/m 6,3 C 4,2 C 12,9 km/h (3 Bft) 100,00 %
19.11.2016 13:18 6,5 C 99 % 1008,5 hPa 0,0 l/m 9,0 km/h (2 Bft) W-SW 242 0 min 0,000 mm 0,0 UV-I 58 W/m 6,4 C 4,4 C 12,9 km/h (3 Bft) 96,23 %
19.11.2016 13:20 6,5 C 99 % 1008,5 hPa 0,0 l/m 8,7 km/h (2 Bft) W-SW 240 0 min 0,000 mm 0,0 UV-I 58 W/m 6,4 C 4,6 C 12,9 km/h (3 Bft) 97,56 %
19.11.2016 13:22 6,6 C 99 % 1008,6 hPa 0,0 l/m 8,1 km/h (2 Bft) SW 234 0 min 0,000 mm 0,0 UV-I 57 W/m 6,5 C 5,2 C 11,3 km/h (2 Bft) 98,11 %
19.11.2016 13:24 6,6 C 99 % 1008,6 hPa 0,0 l/m 10,7 km/h (2 Bft) SW 231 0 min 0,000 mm 0,0 UV-I 56 W/m 6,5 C 3,4 C 17,7 km/h (3 Bft) 100,00 %
19.11.2016 13:26 6,6 C 99 % 1008,6 hPa 0,0 l/m 9,0 km/h (2 Bft) W-SW 254 0 min 0,000 mm 0,0 UV-I 58 W/m 6,5 C 4,5 C 12,9 km/h (3 Bft) 100,00 %
19.11.2016 13:28 6,6 C 99 % 1008,7 hPa 0,0 l/m 8,3 km/h (2 Bft) SW 231 0 min 0,000 mm 0,0 UV-I 57 W/m 6,5 C 5,1 C 12,9 km/h (3 Bft) 100,00 %
19.11.2016 13:30 6,7 C 99 % 1008,8 hPa 0,0 l/m 10,2 km/h (2 Bft) W-SW 248 0 min 0,000 mm 0,0 UV-I 55 W/m 6,6 C 3,8 C 16,1 km/h (3 Bft) 98,00 %
19.11.2016 13:32 6,7 C 99 % 1008,8 hPa 0,0 l/m 10,7 km/h (2 Bft) W-SW 240 0 min 0,000 mm 0,0 UV-I 54 W/m 6,6 C 3,5 C 17,7 km/h (3 Bft) 100,00 %
19.11.2016 13:34 6,7 C 99 % 1008,8 hPa 0,0 l/m 10,5 km/h (2 Bft) S-SW 200 0 min 0,000 mm 0,0 UV-I 53 W/m 6,6 C 3,6 C 16,1 km/h (3 Bft) 97,56 %
19.11.2016 13:36 6,7 C 99 % 1008,8 hPa 0,0 l/m 9,3 km/h (2 Bft) SW 221 0 min 0,000 mm 0,0 UV-I 54 W/m 6,6 C 4,4 C 12,9 km/h (3 Bft) 100,00 %
19.11.2016 13:38 6,8 C 99 % 1008,8 hPa 0,0 l/m 10,0 km/h (2 Bft) SW 225 0 min 0,000 mm 0,0 UV-I 54 W/m 6,7 C 4,1 C 19,3 km/h (3 Bft) 100,00 %
19.11.2016 13:40 6,8 C 99 % 1008,9 hPa 0,0 l/m 11,6 km/h (2 Bft) W-SW 248 0 min 0,000 mm 0,0 UV-I 50 W/m 6,7 C 3,1 C 16,1 km/h (3 Bft) 98,21 %
19.11.2016 13:42 6,8 C 99 % 1009,0 hPa 0,0 l/m 10,2 km/h (2 Bft) W-SW 247 0 min 0,000 mm 0,0 UV-I 48 W/m 6,7 C 3,9 C 16,1 km/h (3 Bft) 100,00 %
19.11.2016 13:44 6,8 C 99 % 1008,9 hPa 0,0 l/m 9,7 km/h (2 Bft) W-SW 241 0 min 0,000 mm 0,0 UV-I 53 W/m 6,7 C 4,3 C 14,5 km/h (3 Bft) 100,00 %
19.11.2016 13:46 6,9 C 99 % 1008,9 hPa 0,0 l/m 9,0 km/h (2 Bft) W-SW 246 0 min 0,000 mm 0,0 UV-I 58 W/m 6,8 C 4,9 C 16,1 km/h (3 Bft) 100,00 %
19.11.2016 13:48 6,9 C 99 % 1008,8 hPa 0,0 l/m 6,2 km/h (2 Bft) S-SW 205 0 min 0,000 mm 0,0 UV-I 70 W/m 6,8 C 6,9 C 11,3 km/h (2 Bft) 98,08 %
19.11.2016 13:50 6,9 C 99 % 1008,8 hPa 0,0 l/m 7,3 km/h (2 Bft) S-SW 204 0 min 0,000 mm 0,0 UV-I 73 W/m 6,8 C 6,2 C 16,1 km/h (3 Bft) 97,44 %
19.11.2016 13:52 7,0 C 99 % 1008,9 hPa 0,0 l/m 8,7 km/h (2 Bft) SW 232 0 min 0,000 mm 0,0 UV-I 62 W/m 6,9 C 5,2 C 11,3 km/h (2 Bft) 98,11 %
19.11.2016 13:54 7,0 C 98 % 1008,9 hPa 0,0 l/m 8,1 km/h (2 Bft) W-SW 240 0 min 0,000 mm 0,0 UV-I 50 W/m 6,7 C 5,6 C 12,9 km/h (3 Bft) 97,37 %
19.11.2016 13:56 7,1 C 98 % 1009,0 hPa 0,0 l/m 9,6 km/h (2 Bft) W-SW 253 0 min 0,000 mm 0,0 UV-I 52 W/m 6,8 C 4,7 C 14,5 km/h (3 Bft) 98,00 %
19.11.2016 13:58 7,1 C 98 % 1009,0 hPa 0,0 l/m 9,0 km/h (2 Bft) SW 227 0 min 0,000 mm 0,0 UV-I 54 W/m 6,8 C 5,1 C 12,9 km/h (3 Bft) 96,36 %
19.11.2016 14:00 7,1 C 98 % 1009,0 hPa 0,0 l/m 9,0 km/h (2 Bft) S-SW 202 0 min 0,000 mm 0,0 UV-I 54 W/m 6,8 C 5,1 C 17,7 km/h (3 Bft) 97,56 %
19.11.2016 14:02 7,1 C 98 % 1008,9 hPa 0,0 l/m 7,9 km/h (2 Bft) S-SW 213 0 min 0,025 mm 0,0 UV-I 52 W/m 6,8 C 5,9 C 14,5 km/h (3 Bft) 95,12 %
19.11.2016 14:04 7,1 C 98 % 1008,9 hPa 0,0 l/m 9,5 km/h (2 Bft) SW 225 0 min 0,000 mm 0,0 UV-I 45 W/m 6,8 C 4,7 C 14,5 km/h (3 Bft) 98,11 %
19.11.2016 14:06 7,1 C 98 % 1008,9 hPa 0,0 l/m 6,7 km/h (2 Bft) S-SW 206 0 min 0,000 mm 0,0 UV-I 42 W/m 6,8 C 6,9 C 9,7 km/h (2 Bft) 96,23 %
19.11.2016 14:08 7,2 C 98 % 1008,9 hPa 0,0 l/m 5,5 km/h (1 Bft) S-SW 211 0 min 0,000 mm 0,0 UV-I 40 W/m 6,9 C 7,2 C 12,9 km/h (3 Bft) 93,62 %
19.11.2016 14:10 7,2 C 98 % 1008,9 hPa 0,0 l/m 10,4 km/h (2 Bft) S-SW 213 0 min 0,000 mm 0,0 UV-I 36 W/m 6,9 C 4,2 C 14,5 km/h (3 Bft) 97,14 %
19.11.2016 14:12 7,2 C 98 % 1008,9 hPa 0,0 l/m 9,1 km/h (2 Bft) S-SW 206 0 min 0,000 mm 0,0 UV-I 33 W/m 6,9 C 5,1 C 12,9 km/h (3 Bft) 98,21 %
19.11.2016 14:14 7,2 C 98 % 1008,9 hPa 0,0 l/m 8,0 km/h (2 Bft) SW 225 0 min 0,000 mm 0,0 UV-I 31 W/m 6,9 C 5,9 C 12,9 km/h (3 Bft) 96,30 %
19.11.2016 14:16 7,2 C 97 % 1008,9 hPa 0,0 l/m 8,9 km/h (2 Bft) S-SW 211 0 min 0,000 mm 0,0 UV-I 30 W/m 6,8 C 5,2 C 14,5 km/h (3 Bft) 97,01 %
19.11.2016 14:18 7,2 C 98 % 1008,8 hPa 0,0 l/m 6,6 km/h (2 Bft) SW 231 0 min 0,000 mm 0,0 UV-I 30 W/m 6,9 C 7,1 C 12,9 km/h (3 Bft) 97,56 %
19.11.2016 14:20 7,2 C 97 % 1008,8 hPa 0,0 l/m 6,7 km/h (2 Bft) S-SW 203 0 min 0,000 mm 0,0 UV-I 27 W/m 6,8 C 7,0 C 11,3 km/h (2 Bft) 96,23 %
19.11.2016 14:22 7,2 C 97 % 1008,9 hPa 0,0 l/m 7,2 km/h (2 Bft) S-SW 198 0 min 0,000 mm 0,0 UV-I 26 W/m 6,8 C 6,5 C 12,9 km/h (3 Bft) 97,87 %
19.11.2016 14:24 7,2 C 97 % 1008,9 hPa 0,0 l/m 9,2 km/h (2 Bft) S-SW 192 0 min 0,000 mm 0,0 UV-I 25 W/m 6,8 C 5,0 C 12,9 km/h (3 Bft) 97,87 %
19.11.2016 14:26 7,3 C 97 % 1009,0 hPa 0,0 l/m 6,1 km/h (2 Bft) SW 216 0 min 0,000 mm 0,0 UV-I 24 W/m 6,9 C 7,3 C 9,7 km/h (2 Bft) 100,00 %
19.11.2016 14:28 7,2 C 97 % 1009,0 hPa 0,0 l/m 5,6 km/h (1 Bft) SW 227 0 min 0,000 mm 0,0 UV-I 25 W/m 6,8 C 7,2 C 8,0 km/h (2 Bft) 98,08 %
19.11.2016 14:30 7,2 C 97 % 1009,0 hPa 0,0 l/m 9,3 km/h (2 Bft) SW 230 0 min 0,000 mm 0,0 UV-I 25 W/m 6,8 C 5,0 C 12,9 km/h (3 Bft) 97,62 %
19.11.2016 14:32 7,2 C 97 % 1009,1 hPa 0,0 l/m 8,2 km/h (2 Bft) SW 236 0 min 0,000 mm 0,0 UV-I 23 W/m 6,8 C 5,8 C 11,3 km/h (2 Bft) 97,73 %
19.11.2016 14:34 7,2 C 97 % 1009,1 hPa 0,0 l/m 6,3 km/h (2 Bft) W-SW 246 0 min 0,000 mm 0,0 UV-I 25 W/m 6,8 C 7,2 C 11,3 km/h (2 Bft) 100,00 %
19.11.2016 14:36 7,2 C 96 % 1009,1 hPa 0,0 l/m 8,9 km/h (2 Bft) W-SW 253 0 min 0,000 mm 0,0 UV-I 25 W/m 6,6 C 5,2 C 16,1 km/h (3 Bft) 100,00 %
19.11.2016 14:38 7,2 C 96 % 1009,0 hPa 0,0 l/m 7,5 km/h (2 Bft) SW 236 0 min 0,000 mm 0,0 UV-I 26 W/m 6,6 C 6,3 C 14,5 km/h (3 Bft) 98,00 %
19.11.2016 14:40 7,2 C 96 % 1009,0 hPa 0,0 l/m 6,5 km/h (2 Bft) W-SW 248 0 min 0,000 mm 0,0 UV-I 27 W/m 6,6 C 7,1 C 12,9 km/h (3 Bft) 100,00 %
19.11.2016 14:42 7,2 C 96 % 1009,0 hPa 0,0 l/m 8,5 km/h (2 Bft) SW 227 0 min 0,000 mm 0,0 UV-I 28 W/m 6,6 C 5,5 C 14,5 km/h (3 Bft) 100,00 %
19.11.2016 14:44 7,2 C 96 % 1009,1 hPa 0,0 l/m 8,4 km/h (2 Bft) SW 229 0 min 0,000 mm 0,0 UV-I 27 W/m 6,6 C 5,6 C 11,3 km/h (2 Bft) 100,00 %
19.11.2016 14:46 7,2 C 96 % 1009,3 hPa 0,0 l/m 7,1 km/h (2 Bft) W-SW 257 0 min 0,000 mm 0,0 UV-I 25 W/m 6,6 C 6,6 C 11,3 km/h (2 Bft) 100,00 %
19.11.2016 14:48 7,2 C 96 % 1009,4 hPa 0,0 l/m 5,6 km/h (1 Bft) S-SW 212 0 min 0,000 mm 0,0 UV-I 23 W/m 6,6 C 7,2 C 9,7 km/h (2 Bft) 98,11 %
19.11.2016 14:50 7,3 C 95 % 1009,4 hPa 0,0 l/m 9,3 km/h (2 Bft) W-SW 240 0 min 0,000 mm 0,0 UV-I 21 W/m 6,6 C 5,1 C 12,9 km/h (3 Bft) 100,00 %
19.11.2016 14:52 7,3 C 95 % 1009,5 hPa 0,0 l/m 11,2 km/h (2 Bft) SW 228 0 min 0,000 mm 0,0 UV-I 21 W/m 6,6 C 3,9 C 16,1 km/h (3 Bft) 100,00 %
19.11.2016 14:54 7,3 C 95 % 1009,5 hPa 0,0 l/m 10,4 km/h (2 Bft) W-SW 246 0 min 0,000 mm 0,0 UV-I 20 W/m 6,6 C 4,4 C 17,7 km/h (3 Bft) 98,11 %
19.11.2016 14:56 7,3 C 95 % 1009,5 hPa 0,0 l/m 10,8 km/h (2 Bft) W-SW 244 0 min 0,000 mm 0,0 UV-I 19 W/m 6,6 C 4,1 C 17,7 km/h (3 Bft) 100,00 %
19.11.2016 14:58 7,3 C 95 % 1009,6 hPa 0,0 l/m 10,1 km/h (2 Bft) W-SW 245 0 min 0,000 mm 0,0 UV-I 19 W/m 6,6 C 4,5 C 14,5 km/h (3 Bft) 97,73 %
19.11.2016 15:00 7,3 C 95 % 1009,6 hPa 0,0 l/m 10,8 km/h (2 Bft) W-SW 250 0 min 0,026 mm 0,0 UV-I 19 W/m 6,6 C 4,1 C 16,1 km/h (3 Bft) 100,00 %
19.11.2016 15:02 7,3 C 95 % 1009,7 hPa 0,0 l/m 12,8 km/h (3 Bft) W-SW 257 0 min 0,000 mm 0,0 UV-I 19 W/m 6,6 C 3,0 C 17,7 km/h (3 Bft) 100,00 %
19.11.2016 15:04 7,3 C 95 % 1009,8 hPa 0,0 l/m 14,7 km/h (3 Bft) W 273 0 min 0,000 mm 0,0 UV-I 19 W/m 6,6 C 2,0 C 20,9 km/h (4 Bft) 100,00 %
19.11.2016 15:06 7,3 C 95 % 1009,8 hPa 0,0 l/m 15,7 km/h (3 Bft) W-SW 242 0 min 0,000 mm 0,0 UV-I 18 W/m 6,6 C 1,5 C 22,5 km/h (4 Bft) 100,00 %
19.11.2016 15:08 7,3 C 95 % 1009,9 hPa 0,0 l/m 13,6 km/h (3 Bft) SW 225 0 min 0,000 mm 0,0 UV-I 18 W/m 6,6 C 2,5 C 20,9 km/h (4 Bft) 100,00 %
19.11.2016 15:10 7,3 C 94 % 1009,8 hPa 0,0 l/m 14,4 km/h (3 Bft) W 265 0 min 0,000 mm 0,0 UV-I 17 W/m 6,4 C 2,1 C 20,9 km/h (4 Bft) 100,00 %
19.11.2016 15:12 7,3 C 94 % 1009,8 hPa 0,0 l/m 14,7 km/h (3 Bft) SW 236 0 min 0,000 mm 0,0 UV-I 16 W/m 6,4 C 2,0 C 20,9 km/h (4 Bft) 100,00 %
19.11.2016 15:14 7,3 C 94 % 1009,9 hPa 0,0 l/m 13,4 km/h (3 Bft) W 261 0 min 0,000 mm 0,0 UV-I 18 W/m 6,4 C 2,7 C 22,5 km/h (4 Bft) 100,00 %
19.11.2016 15:16 7,3 C 94 % 1010,0 hPa 0,0 l/m 15,9 km/h (3 Bft) SW 231 0 min 0,000 mm 0,0 UV-I 18 W/m 6,4 C 1,5 C 22,5 km/h (4 Bft) 100,00 %
19.11.2016 15:18 7,3 C 94 % 1010,0 hPa 0,0 l/m 14,9 km/h (3 Bft) SW 236 0 min 0,000 mm 0,0 UV-I 16 W/m 6,4 C 1,9 C 24,1 km/h (4 Bft) 100,00 %
19.11.2016 15:20 7,3 C 94 % 1010,0 hPa 0,0 l/m 13,2 km/h (3 Bft) W-SW 252 0 min 0,000 mm 0,0 UV-I 16 W/m 6,4 C 2,8 C 22,5 km/h (4 Bft) 98,00 %
19.11.2016 15:22 7,3 C 94 % 1010,0 hPa 0,0 l/m 13,2 km/h (3 Bft) W-SW 239 0 min 0,000 mm 0,0 UV-I 16 W/m 6,4 C 2,8 C 20,9 km/h (4 Bft) 100,00 %
19.11.2016 15:24 7,3 C 94 % 1010,0 hPa 0,0 l/m 16,2 km/h (3 Bft) S-SW 205 0 min 0,000 mm 0,0 UV-I 16 W/m 6,4 C 1,3 C 24,1 km/h (4 Bft) 100,00 %
19.11.2016 15:26 7,3 C 94 % 1010,2 hPa 0,0 l/m 16,7 km/h (3 Bft) W 262 0 min 0,000 mm 0,0 UV-I 14 W/m 6,4 C 1,1 C 25,7 km/h (4 Bft) 100,00 %
19.11.2016 15:28 7,4 C 93 % 1010,2 hPa 0,0 l/m 19,5 km/h (3 Bft) W-SW 246 0 min 0,000 mm 0,0 UV-I 13 W/m 6,3 C 0,1 C 25,7 km/h (4 Bft) 100,00 %
19.11.2016 15:30 7,4 C 93 % 1010,2 hPa 0,0 l/m 18,7 km/h (3 Bft) W-SW 257 0 min 0,000 mm 0,0 UV-I 12 W/m 6,3 C 0,4 C 25,7 km/h (4 Bft) 100,00 %
19.11.2016 15:32 7,4 C 93 % 1010,2 hPa 0,0 l/m 17,0 km/h (3 Bft) W-SW 255 0 min 0,000 mm 0,0 UV-I 12 W/m 6,3 C 1,1 C 25,7 km/h (4 Bft) 100,00 %
19.11.2016 15:34 7,4 C 93 % 1010,3 hPa 0,0 l/m 16,7 km/h (3 Bft) S-SW 212 0 min 0,000 mm 0,0 UV-I 12 W/m 6,3 C 1,2 C 27,4 km/h (4 Bft) 100,00 %
19.11.2016 15:36 7,4 C 93 % 1010,3 hPa 0,0 l/m 15,7 km/h (3 Bft) SW 234 0 min 0,000 mm 0,0 UV-I 12 W/m 6,3 C 1,7 C 20,9 km/h (4 Bft) 96,00 %
19.11.2016 15:38 7,4 C 93 % 1010,4 hPa 0,0 l/m 16,9 km/h (3 Bft) SW 231 0 min 0,000 mm 0,0 UV-I 11 W/m 6,3 C 1,1 C 25,7 km/h (4 Bft) 100,00 %
19.11.2016 15:40 7,4 C 93 % 1010,4 hPa 0,0 l/m 14,9 km/h (3 Bft) W-SW 249 0 min 0,000 mm 0,0 UV-I 11 W/m 6,3 C 2,0 C 20,9 km/h (4 Bft) 100,00 %
19.11.2016 15:42 7,4 C 93 % 1010,5 hPa 0,0 l/m 16,7 km/h (3 Bft) W-SW 256 0 min 0,000 mm 0,0 UV-I 11 W/m 6,3 C 1,2 C 24,1 km/h (4 Bft) 100,00 %
19.11.2016 15:44 7,4 C 93 % 1010,5 hPa 0,0 l/m 12,7 km/h (3 Bft) W-SW 250 0 min 0,000 mm 0,0 UV-I 11 W/m 6,3 C 3,1 C 25,7 km/h (4 Bft) 100,00 %
19.11.2016 15:46 7,3 C 93 % 1010,6 hPa 0,0 l/m 15,2 km/h (3 Bft) SW 228 0 min 0,000 mm 0,0 UV-I 11 W/m 6,2 C 1,8 C 20,9 km/h (4 Bft) 100,00 %
19.11.2016 15:48 7,4 C 93 % 1010,7 hPa 0,0 l/m 16,9 km/h (3 Bft) W-SW 243 0 min 0,000 mm 0,0 UV-I 11 W/m 6,3 C 1,1 C 27,4 km/h (4 Bft) 98,53 %
19.11.2016 15:50 7,4 C 93 % 1010,7 hPa 0,0 l/m 20,1 km/h (4 Bft) SW 231 0 min 0,000 mm 0,0 UV-I 11 W/m 6,3 C -0,1 C 29,0 km/h (5 Bft) 97,87 %
19.11.2016 15:52 7,4 C 93 % 1010,6 hPa 0,0 l/m 16,6 km/h (3 Bft) W-SW 251 0 min 0,000 mm 0,0 UV-I 11 W/m 6,3 C 1,3 C 25,7 km/h (4 Bft) 100,00 %
19.11.2016 15:54 7,4 C 93 % 1010,7 hPa 0,0 l/m 18,5 km/h (3 Bft) W 267 0 min 0,000 mm 0,0 UV-I 9 W/m 6,3 C 0,5 C 27,4 km/h (4 Bft) 100,00 %
19.11.2016 15:56 7,4 C 93 % 1010,7 hPa 0,0 l/m 19,6 km/h (3 Bft) W-SW 253 0 min 0,000 mm 0,0 UV-I 9 W/m 6,3 C 0,1 C 30,6 km/h (5 Bft) 98,00 %
19.11.2016 15:58 7,4 C 92 % 1010,7 hPa 0,0 l/m 20,0 km/h (4 Bft) W-SW 240 0 min 0,000 mm 0,0 UV-I 7 W/m 6,2 C -0,1 C 30,6 km/h (5 Bft) 94,34 %
19.11.2016 16:00 7,4 C 92 % 1010,7 hPa 0,0 l/m 17,8 km/h (3 Bft) W 262 0 min 0,025 mm 0,0 UV-I 7 W/m 6,2 C 0,8 C 24,1 km/h (4 Bft) 100,00 %
19.11.2016 16:02 7,4 C 92 % 1010,8 hPa 0,0 l/m 21,9 km/h (4 Bft) W-SW 244 0 min 0,000 mm 0,0 UV-I 7 W/m 6,2 C -0,7 C 32,2 km/h (5 Bft) 96,43 %
19.11.2016 16:04 7,4 C 92 % 1010,9 hPa 0,0 l/m 15,9 km/h (3 Bft) SW 223 0 min 0,000 mm 0,0 UV-I 7 W/m 6,2 C 1,6 C 32,2 km/h (5 Bft) 94,74 %
19.11.2016 16:06 7,4 C 92 % 1011,0 hPa 0,0 l/m 19,5 km/h (3 Bft) W-SW 239 0 min 0,000 mm 0,0 UV-I 5 W/m 6,2 C 0,1 C 25,7 km/h (4 Bft) 98,00 %
19.11.2016 16:08 7,5 C 92 % 1011,1 hPa 0,2 l/m 19,2 km/h (3 Bft) SW 227 0 min 0,000 mm 0,0 UV-I 5 W/m 6,3 C 0,4 C 27,4 km/h (4 Bft) 97,87 %
19.11.2016 16:10 7,5 C 92 % 1011,1 hPa 0,0 l/m 19,9 km/h (4 Bft) W-SW 242 0 min 0,000 mm 0,0 UV-I 5 W/m 6,3 C 0,1 C 29,0 km/h (5 Bft) 94,29 %
19.11.2016 16:12 7,6 C 92 % 1011,1 hPa 0,0 l/m 19,0 km/h (3 Bft) W-SW 244 0 min 0,000 mm 0,0 UV-I 5 W/m 6,4 C 0,6 C 30,6 km/h (5 Bft) 98,21 %
19.11.2016 16:14 7,6 C 91 % 1011,2 hPa 0,0 l/m 21,1 km/h (4 Bft) SW 233 0 min 0,000 mm 0,0 UV-I 4 W/m 6,2 C -0,2 C 33,8 km/h (5 Bft) 97,73 %
19.11.2016 16:16 7,6 C 91 % 1011,2 hPa 0,0 l/m 22,4 km/h (4 Bft) W 270 0 min 0,000 mm 0,0 UV-I 0 W/m 6,2 C -0,6 C 37,0 km/h (5 Bft) 96,61 %
19.11.2016 16:18 7,6 C 91 % 1011,2 hPa 0,0 l/m 23,0 km/h (4 Bft) W 263 0 min 0,000 mm 0,0 UV-I 0 W/m 6,2 C -0,8 C 32,2 km/h (5 Bft) 100,00 %
19.11.2016 16:20 7,6 C 91 % 1011,2 hPa 0,0 l/m 17,5 km/h (3 Bft) SW 232 0 min 0,000 mm 0,0 UV-I 0 W/m 6,2 C 1,1 C 22,5 km/h (4 Bft) 95,74 %
19.11.2016 16:22 7,6 C 91 % 1011,2 hPa 0,0 l/m 17,3 km/h (3 Bft) W 259 0 min 0,000 mm 0,0 UV-I 0 W/m 6,2 C 1,2 C 25,7 km/h (4 Bft) 96,43 %
19.11.2016 16:24 7,6 C 91 % 1011,3 hPa 0,0 l/m 16,6 km/h (3 Bft) W-SW 237 0 min 0,000 mm 0,0 UV-I 0 W/m 6,2 C 1,5 C 22,5 km/h (4 Bft) 96,30 %
19.11.2016 16:26 7,6 C 91 % 1011,4 hPa 0,0 l/m 15,9 km/h (3 Bft) W-SW 239 0 min 0,000 mm 0,0 UV-I 0 W/m 6,2 C 1,8 C 22,5 km/h (4 Bft) 96,61 %
19.11.2016 16:28 7,6 C 91 % 1011,4 hPa 0,0 l/m 16,1 km/h (3 Bft) W-SW 246 0 min 0,000 mm 0,0 UV-I 0 W/m 6,2 C 1,7 C 25,7 km/h (4 Bft) 96,23 %
19.11.2016 16:30 7,5 C 91 % 1011,5 hPa 0,0 l/m 17,2 km/h (3 Bft) W-NW 284 0 min 0,000 mm 0,0 UV-I 0 W/m 6,1 C 1,1 C 27,4 km/h (4 Bft) 97,73 %
19.11.2016 16:32 7,5 C 91 % 1011,5 hPa 0,0 l/m 14,1 km/h (3 Bft) W-SW 253 0 min 0,000 mm 0,0 UV-I 0 W/m 6,1 C 2,5 C 24,1 km/h (4 Bft) 97,87 %
19.11.2016 16:34 7,5 C 91 % 1011,5 hPa 0,0 l/m 14,8 km/h (3 Bft) W-SW 240 0 min 0,000 mm 0,0 UV-I 0 W/m 6,1 C 2,2 C 29,0 km/h (5 Bft) 100,00 %
19.11.2016 16:36 7,4 C 91 % 1011,6 hPa 0,0 l/m 17,3 km/h (3 Bft) W 281 0 min 0,000 mm 0,0 UV-I 0 W/m 6,0 C 1,0 C 25,7 km/h (4 Bft) 98,00 %
19.11.2016 16:38 7,4 C 91 % 1011,6 hPa 0,0 l/m 20,9 km/h (4 Bft) W-SW 254 0 min 0,000 mm 0,0 UV-I 0 W/m 6,0 C -0,4 C 29,0 km/h (5 Bft) 100,00 %
19.11.2016 16:40 7,4 C 90 % 1011,7 hPa 0,0 l/m 14,5 km/h (3 Bft) W 271 0 min 0,000 mm 0,0 UV-I 0 W/m 5,9 C 2,2 C 25,7 km/h (4 Bft) 100,00 %
19.11.2016 16:42 7,4 C 90 % 1011,8 hPa 0,0 l/m 17,7 km/h (3 Bft) W-SW 257 0 min 0,000 mm 0,0 UV-I 0 W/m 5,9 C 0,8 C 24,1 km/h (4 Bft) 100,00 %
19.11.2016 16:44 7,4 C 90 % 1011,8 hPa 0,0 l/m 19,1 km/h (3 Bft) W-SW 246 0 min 0,000 mm 0,0 UV-I 0 W/m 5,9 C 0,3 C 30,6 km/h (5 Bft) 97,62 %
19.11.2016 16:46 7,4 C 90 % 1011,9 hPa 0,0 l/m 20,1 km/h (4 Bft) W-SW 254 0 min 0,000 mm 0,0 UV-I 0 W/m 5,9 C -0,1 C 33,8 km/h (5 Bft) 100,00 %
19.11.2016 16:48 7,4 C 90 % 1011,9 hPa 0,0 l/m 18,6 km/h (3 Bft) W 276 0 min 0,000 mm 0,0 UV-I 0 W/m 5,9 C 0,5 C 27,4 km/h (4 Bft) 100,00 %
19.11.2016 16:50 7,4 C 89 % 1012,0 hPa 0,0 l/m 17,9 km/h (3 Bft) SW 223 0 min 0,000 mm 0,0 UV-I 0 W/m 5,7 C 0,7 C 24,1 km/h (4 Bft) 97,56 %
19.11.2016 16:52 7,4 C 89 % 1012,0 hPa 0,0 l/m 19,2 km/h (3 Bft) W-SW 254 0 min 0,000 mm 0,0 UV-I 0 W/m 5,7 C 0,2 C 25,7 km/h (4 Bft) 100,00 %
19.11.2016 16:54 7,4 C 89 % 1012,1 hPa 0,0 l/m 17,1 km/h (3 Bft) W-SW 252 0 min 0,000 mm 0,0 UV-I 0 W/m 5,7 C 1,1 C 25,7 km/h (4 Bft) 97,37 %
19.11.2016 16:56 7,4 C 88 % 1012,2 hPa 0,0 l/m 16,1 km/h (3 Bft) S-SW 197 0 min 0,000 mm 0,0 UV-I 0 W/m 5,5 C 1,5 C 27,4 km/h (4 Bft) 100,00 %
19.11.2016 16:58 7,4 C 88 % 1012,2 hPa 0,0 l/m 20,8 km/h (4 Bft) W 276 0 min 0,000 mm 0,0 UV-I 0 W/m 5,5 C -0,4 C 30,6 km/h (5 Bft) 98,11 %
19.11.2016 17:00 7,3 C 88 % 1012,2 hPa 0,0 l/m 24,5 km/h (4 Bft) W-SW 243 0 min 0,026 mm 0,0 UV-I 0 W/m 5,4 C -1,7 C 33,8 km/h (5 Bft) 100,00 %
19.11.2016 17:02 7,3 C 87 % 1012,2 hPa 0,0 l/m 19,3 km/h (3 Bft) W-SW 252 0 min 0,000 mm 0,0 UV-I 0 W/m 5,3 C 0,1 C 27,4 km/h (4 Bft) 100,00 %
19.11.2016 17:04 7,3 C 87 % 1012,3 hPa 0,0 l/m 20,7 km/h (4 Bft) W-SW 250 0 min 0,000 mm 0,0 UV-I 0 W/m 5,3 C -0,5 C 32,2 km/h (5 Bft) 100,00 %
19.11.2016 17:06 7,3 C 87 % 1012,3 hPa 0,0 l/m 17,3 km/h (3 Bft) W-SW 247 0 min 0,000 mm 0,0 UV-I 0 W/m 5,3 C 0,8 C 32,2 km/h (5 Bft) 100,00 %
19.11.2016 17:08 7,2 C 87 % 1012,4 hPa 0,0 l/m 21,6 km/h (4 Bft) SW 234 0 min 0,000 mm 0,0 UV-I 0 W/m 5,2 C -0,9 C 33,8 km/h (5 Bft) 100,00 %
19.11.2016 17:10 7,2 C 87 % 1012,5 hPa 0,0 l/m 18,5 km/h (3 Bft) W-SW 252 0 min 0,000 mm 0,0 UV-I 0 W/m 5,2 C 0,2 C 24,1 km/h (4 Bft) 100,00 %
19.11.2016 17:12 7,2 C 87 % 1012,6 hPa 0,0 l/m 19,2 km/h (3 Bft) W-SW 238 0 min 0,000 mm 0,0 UV-I 0 W/m 5,2 C -0,0 C 30,6 km/h (5 Bft) 100,00 %
19.11.2016 17:14 7,2 C 87 % 1012,6 hPa 0,0 l/m 23,4 km/h (4 Bft) SW 223 0 min 0,000 mm 0,0 UV-I 0 W/m 5,2 C -1,5 C 41,8 km/h (6 Bft) 100,00 %
19.11.2016 17:16 7,1 C 87 % 1012,7 hPa 0,0 l/m 17,9 km/h (3 Bft) W-NW 284 0 min 0,000 mm 0,0 UV-I 0 W/m 5,1 C 0,4 C 29,0 km/h (5 Bft) 98,31 %
19.11.2016 17:18 7,1 C 87 % 1012,7 hPa 0,0 l/m 21,4 km/h (4 Bft) W-SW 258 0 min 0,000 mm 0,0 UV-I 0 W/m 5,1 C -1,0 C 32,2 km/h (5 Bft) 100,00 %
19.11.2016 17:20 7,1 C 87 % 1012,8 hPa 0,0 l/m 16,1 km/h (3 Bft) W-SW 239 0 min 0,000 mm 0,0 UV-I 0 W/m 5,1 C 1,1 C 22,5 km/h (4 Bft) 100,00 %
19.11.2016 17:22 7,1 C 87 % 1013,0 hPa 0,0 l/m 17,5 km/h (3 Bft) SW 223 0 min 0,000 mm 0,0 UV-I 0 W/m 5,1 C 0,5 C 29,0 km/h (5 Bft) 100,00 %
19.11.2016 17:24 7,1 C 87 % 1013,0 hPa 0,0 l/m 19,5 km/h (3 Bft) W-SW 252 0 min 0,000 mm 0,0 UV-I 0 W/m 5,1 C -0,3 C 30,6 km/h (5 Bft) 100,00 %
19.11.2016 17:26 7,1 C 87 % 1012,9 hPa 0,0 l/m 23,3 km/h (4 Bft) W-SW 254 0 min 0,000 mm 0,0 UV-I 0 W/m 5,1 C -1,6 C 29,0 km/h (5 Bft) 100,00 %
19.11.2016 17:29 7,1 C 87 % 1012,9 hPa 0,0 l/m 22,6 km/h (4 Bft) W 260 0 min 0,000 mm 0,0 UV-I 0 W/m 5,1 C -1,4 C 32,2 km/h (5 Bft) 100,00 %
19.11.2016 17:30 7,1 C 87 % 1012,9 hPa 0,0 l/m 23,6 km/h (4 Bft) S-SW 198 0 min 0,000 mm 0,0 UV-I 0 W/m 5,1 C -1,7 C 33,8 km/h (5 Bft) 96,15 %
19.11.2016 17:32 7,1 C 87 % 1013,1 hPa 0,0 l/m 15,4 km/h (3 Bft) SW 233 0 min 0,000 mm 0,0 UV-I 0 W/m 5,1 C 1,4 C 25,7 km/h (4 Bft) 100,00 %
19.11.2016 17:34 7,0 C 87 % 1013,2 hPa 0,0 l/m 16,9 km/h (3 Bft) SW 235 0 min 0,000 mm 0,0 UV-I 0 W/m 5,0 C 0,6 C 22,5 km/h (4 Bft) 100,00 %
19.11.2016 17:36 6,9 C 87 % 1013,2 hPa 0,0 l/m 20,2 km/h (4 Bft) W-SW 250 0 min 0,000 mm 0,0 UV-I 0 W/m 4,9 C -0,8 C 29,0 km/h (5 Bft) 100,00 %
19.11.2016 17:38 6,9 C 87 % 1013,2 hPa 0,0 l/m 22,4 km/h (4 Bft) W 277 0 min 0,000 mm 0,0 UV-I 0 W/m 4,9 C -1,6 C 32,2 km/h (5 Bft) 97,56 %
19.11.2016 17:40 6,9 C 87 % 1013,2 hPa 0,0 l/m 17,9 km/h (3 Bft) W 259 0 min 0,000 mm 0,0 UV-I 0 W/m 4,9 C 0,1 C 25,7 km/h (4 Bft) 100,00 %
19.11.2016 17:42 6,9 C 87 % 1013,3 hPa 0,0 l/m 20,0 km/h (4 Bft) W-SW 258 0 min 0,000 mm 0,0 UV-I 0 W/m 4,9 C -0,7 C 32,2 km/h (5 Bft) 100,00 %
19.11.2016 17:44 6,9 C 87 % 1013,4 hPa 0,0 l/m 16,9 km/h (3 Bft) SW 226 0 min 0,000 mm 0,0 UV-I 0 W/m 4,9 C 0,5 C 30,6 km/h (5 Bft) 100,00 %
19.11.2016 17:46 6,8 C 87 % 1013,4 hPa 0,0 l/m 15,4 km/h (3 Bft) W 259 0 min 0,000 mm 0,0 UV-I 0 W/m 4,8 C 1,1 C 20,9 km/h (4 Bft) 95,83 %
19.11.2016 17:48 6,8 C 88 % 1013,3 hPa 0,0 l/m 21,1 km/h (4 Bft) SW 222 0 min 0,000 mm 0,0 UV-I 0 W/m 5,0 C -1,2 C 33,8 km/h (5 Bft) 100,00 %
19.11.2016 17:50 6,8 C 87 % 1013,4 hPa 0,0 l/m 21,0 km/h (4 Bft) SW 214 0 min 0,000 mm 0,0 UV-I 0 W/m 4,8 C -1,2 C 35,4 km/h (5 Bft) 100,00 %
19.11.2016 17:52 6,7 C 87 % 1013,4 hPa 0,0 l/m 17,1 km/h (3 Bft) W-SW 242 0 min 0,000 mm 0,0 UV-I 0 W/m 4,7 C 0,2 C 25,7 km/h (4 Bft) 100,00 %
19.11.2016 17:54 6,7 C 88 % 1013,5 hPa 0,0 l/m 17,0 km/h (3 Bft) W-SW 252 0 min 0,000 mm 0,0 UV-I 0 W/m 4,9 C 0,2 C 20,9 km/h (4 Bft) 98,11 %
19.11.2016 17:56 6,7 C 88 % 1013,6 hPa 0,0 l/m 16,2 km/h (3 Bft) W-SW 244 0 min 0,000 mm 0,0 UV-I 0 W/m 4,9 C 0,6 C 27,4 km/h (4 Bft) 95,12 %
19.11.2016 17:58 6,6 C 88 % 1013,7 hPa 0,0 l/m 18,7 km/h (3 Bft) W-SW 238 0 min 0,000 mm 0,0 UV-I 0 W/m 4,8 C -0,6 C 27,4 km/h (4 Bft) 100,00 %
19.11.2016 18:00 6,6 C 88 % 1013,9 hPa 0,0 l/m 14,6 km/h (3 Bft) SW 224 0 min 0,025 mm 0,0 UV-I 0 W/m 4,8 C 1,2 C 22,5 km/h (4 Bft) 100,00 %
19.11.2016 18:02 6,6 C 88 % 1014,0 hPa 0,0 l/m 18,1 km/h (3 Bft) SW 236 0 min 0,000 mm 0,0 UV-I 0 W/m 4,8 C -0,4 C 24,1 km/h (4 Bft) 100,00 %
19.11.2016 18:04 6,5 C 88 % 1014,1 hPa 0,0 l/m 16,2 km/h (3 Bft) W-SW 245 0 min 0,000 mm 0,0 UV-I 0 W/m 4,7 C 0,3 C 30,6 km/h (5 Bft) 97,56 %
19.11.2016 18:06 6,5 C 88 % 1014,0 hPa 0,0 l/m 25,7 km/h (4 Bft) W-SW 251 0 min 0,000 mm 0,0 UV-I 0 W/m 4,7 C -3,1 C 35,4 km/h (5 Bft) 98,00 %
19.11.2016 18:08 6,5 C 88 % 1014,0 hPa 0,0 l/m 18,6 km/h (3 Bft) SW 214 0 min 0,000 mm 0,0 UV-I 0 W/m 4,7 C -0,7 C 27,4 km/h (4 Bft) 97,56 %
19.11.2016 18:10 6,4 C 88 % 1014,0 hPa 0,0 l/m 17,2 km/h (3 Bft) W 275 0 min 0,000 mm 0,0 UV-I 0 W/m 4,6 C -0,2 C 29,0 km/h (5 Bft) 95,45 %
19.11.2016 18:12 6,4 C 88 % 1013,9 hPa 0,0 l/m 21,7 km/h (4 Bft) W 269 0 min 0,000 mm 0,0 UV-I 0 W/m 4,6 C -2,0 C 30,6 km/h (5 Bft) 98,15 %
19.11.2016 18:14 6,4 C 88 % 1014,0 hPa 0,0 l/m 20,8 km/h (4 Bft) W 273 0 min 0,000 mm 0,0 UV-I 0 W/m 4,6 C -1,7 C 30,6 km/h (5 Bft) 98,00 %
19.11.2016 18:16 6,4 C 88 % 1014,1 hPa 0,0 l/m 22,3 km/h (4 Bft) SW 236 0 min 0,000 mm 0,0 UV-I 0 W/m 4,6 C -2,2 C 30,6 km/h (5 Bft) 97,22 %
19.11.2016 18:18 6,4 C 88 % 1014,2 hPa 0,0 l/m 19,1 km/h (3 Bft) W-SW 257 0 min 0,000 mm 0,0 UV-I 0 W/m 4,6 C -1,0 C 29,0 km/h (5 Bft) 96,23 %
19.11.2016 18:20 6,3 C 88 % 1014,2 hPa 0,0 l/m 17,4 km/h (3 Bft) W-SW 240 0 min 0,000 mm 0,0 UV-I 0 W/m 4,5 C -0,4 C 22,5 km/h (4 Bft) 96,15 %
19.11.2016 18:22 6,3 C 88 % 1014,3 hPa 0,0 l/m 19,5 km/h (3 Bft) SW 223 0 min 0,000 mm 0,0 UV-I 0 W/m 4,5 C -1,3 C 27,4 km/h (4 Bft) 97,78 %
19.11.2016 18:24 6,3 C 88 % 1014,4 hPa 0,0 l/m 18,5 km/h (3 Bft) W-SW 258 0 min 0,000 mm 0,0 UV-I 0 W/m 4,5 C -0,9 C 30,6 km/h (5 Bft) 95,45 %
19.11.2016 18:26 6,3 C 88 % 1014,4 hPa 0,0 l/m 18,8 km/h (3 Bft) W 267 0 min 0,000 mm 0,0 UV-I 0 W/m 4,5 C -1,0 C 32,2 km/h (5 Bft) 98,11 %
19.11.2016 18:28 6,3 C 89 % 1014,3 hPa 0,0 l/m 18,7 km/h (3 Bft) W-SW 245 0 min 0,000 mm 0,0 UV-I 0 W/m 4,6 C -1,0 C 25,7 km/h (4 Bft) 94,74 %
19.11.2016 18:30 6,3 C 89 % 1014,4 hPa 0,0 l/m 18,7 km/h (3 Bft) W 259 0 min 0,000 mm 0,0 UV-I 0 W/m 4,6 C -1,0 C 25,7 km/h (4 Bft) 98,21 %
19.11.2016 18:32 6,2 C 89 % 1014,5 hPa 0,0 l/m 18,0 km/h (3 Bft) W-SW 248 0 min 0,000 mm 0,0 UV-I 0 W/m 4,5 C -0,8 C 25,7 km/h (4 Bft) 97,56 %
19.11.2016 18:34 6,2 C 89 % 1014,5 hPa 0,0 l/m 19,2 km/h (3 Bft) W 269 0 min 0,000 mm 0,0 UV-I 0 W/m 4,5 C -1,3 C 27,4 km/h (4 Bft) 96,23 %
19.11.2016 18:36 6,2 C 89 % 1014,6 hPa 0,0 l/m 16,7 km/h (3 Bft) W-SW 248 0 min 0,000 mm 0,0 UV-I 0 W/m 4,5 C -0,3 C 22,5 km/h (4 Bft) 95,12 %
19.11.2016 18:38 6,2 C 89 % 1014,5 hPa 0,0 l/m 18,7 km/h (3 Bft) W-SW 257 0 min 0,000 mm 0,0 UV-I 0 W/m 4,5 C -1,1 C 27,4 km/h (4 Bft) 97,73 %
19.11.2016 18:40 6,2 C 89 % 1014,6 hPa 0,0 l/m 20,0 km/h (4 Bft) SW 227 0 min 0,000 mm 0,0 UV-I 0 W/m 4,5 C -1,6 C 32,2 km/h (5 Bft) 98,11 %
19.11.2016 18:42 6,1 C 89 % 1014,6 hPa 0,0 l/m 16,1 km/h (3 Bft) S-SW 205 0 min 0,000 mm 0,0 UV-I 0 W/m 4,4 C -0,1 C 20,9 km/h (4 Bft) 97,56 %
19.11.2016 18:44 6,1 C 89 % 1014,7 hPa 0,0 l/m 17,7 km/h (3 Bft) SW 229 0 min 0,000 mm 0,0 UV-I 0 W/m 4,4 C -0,8 C 25,7 km/h (4 Bft) 97,87 %
19.11.2016 18:46 6,1 C 89 % 1014,7 hPa 0,0 l/m 17,2 km/h (3 Bft) SW 229 0 min 0,000 mm 0,0 UV-I 0 W/m 4,4 C -0,6 C 27,4 km/h (4 Bft) 97,56 %
19.11.2016 18:48 6,1 C 90 % 1014,7 hPa 0,0 l/m 15,7 km/h (3 Bft) SW 229 0 min 0,000 mm 0,0 UV-I 0 W/m 4,6 C 0,1 C 24,1 km/h (4 Bft) 98,11 %
19.11.2016 18:50 6,0 C 90 % 1014,7 hPa 0,0 l/m 16,8 km/h (3 Bft) W 267 0 min 0,000 mm 0,0 UV-I 0 W/m 4,5 C -0,6 C 25,7 km/h (4 Bft) 97,56 %
19.11.2016 18:52 6,0 C 90 % 1014,7 hPa 0,0 l/m 13,1 km/h (3 Bft) W 274 0 min 0,000 mm 0,0 UV-I 0 W/m 4,5 C 1,3 C 17,7 km/h (3 Bft) 100,00 %
19.11.2016 18:54 5,9 C 90 % 1014,8 hPa 0,0 l/m 15,1 km/h (3 Bft) SW 236 0 min 0,000 mm 0,0 UV-I 0 W/m 4,4 C 0,1 C 27,4 km/h (4 Bft) 96,00 %
19.11.2016 18:56 5,9 C 90 % 1014,8 hPa 0,0 l/m 17,0 km/h (3 Bft) SW 236 0 min 0,000 mm 0,0 UV-I 0 W/m 4,4 C -0,8 C 24,1 km/h (4 Bft) 100,00 %
19.11.2016 18:58 5,9 C 90 % 1014,8 hPa 0,0 l/m 16,2 km/h (3 Bft) W 259 0 min 0,000 mm 0,0 UV-I 0 W/m 4,4 C -0,4 C 22,5 km/h (4 Bft) 100,00 %
19.11.2016 19:00 5,9 C 90 % 1014,9 hPa 0,2 l/m 17,0 km/h (3 Bft) W-SW 258 0 min 0,025 mm 0,0 UV-I 0 W/m 4,4 C -0,8 C 32,2 km/h (5 Bft) 97,44 %
19.11.2016 19:02 5,9 C 90 % 1014,9 hPa 0,0 l/m 13,9 km/h (3 Bft) SW 216 0 min 0,000 mm 0,0 UV-I 0 W/m 4,4 C 0,7 C 19,3 km/h (3 Bft) 98,00 %
19.11.2016 19:04 5,9 C 90 % 1015,0 hPa 0,0 l/m 18,7 km/h (3 Bft) SW 215 0 min 0,000 mm 0,0 UV-I 0 W/m 4,4 C -1,5 C 27,4 km/h (4 Bft) 98,11 %
19.11.2016 19:06 5,9 C 89 % 1015,0 hPa 0,0 l/m 18,8 km/h (3 Bft) SW 216 0 min 0,000 mm 0,0 UV-I 0 W/m 4,2 C -1,5 C 24,1 km/h (4 Bft) 100,00 %
19.11.2016 19:08 5,9 C 89 % 1015,1 hPa 0,0 l/m 16,6 km/h (3 Bft) W 266 0 min 0,000 mm 0,0 UV-I 0 W/m 4,2 C -0,6 C 25,7 km/h (4 Bft) 100,00 %
19.11.2016 19:10 5,9 C 89 % 1015,0 hPa 0,0 l/m 14,1 km/h (3 Bft) W 266 0 min 0,000 mm 0,0 UV-I 0 W/m 4,2 C 0,6 C 19,3 km/h (3 Bft) 100,00 %
19.11.2016 19:12 5,8 C 90 % 1015,0 hPa 0,0 l/m 12,8 km/h (3 Bft) W-SW 250 0 min 0,000 mm 0,0 UV-I 0 W/m 4,3 C 1,2 C 19,3 km/h (3 Bft) 100,00 %
19.11.2016 19:14 5,8 C 90 % 1015,1 hPa 0,0 l/m 18,7 km/h (3 Bft) W-SW 251 0 min 0,000 mm 0,0 UV-I 0 W/m 4,3 C -1,6 C 29,0 km/h (5 Bft) 100,00 %
19.11.2016 19:16 5,8 C 90 % 1015,2 hPa 0,0 l/m 16,9 km/h (3 Bft) SW 234 0 min 0,000 mm 0,0 UV-I 0 W/m 4,3 C -0,9 C 22,5 km/h (4 Bft) 100,00 %
19.11.2016 19:18 5,8 C 90 % 1015,3 hPa 0,0 l/m 17,6 km/h (3 Bft) SW 215 0 min 0,000 mm 0,0 UV-I 0 W/m 4,3 C -1,2 C 27,4 km/h (4 Bft) 100,00 %
19.11.2016 19:20 5,8 C 90 % 1015,5 hPa 0,0 l/m 14,2 km/h (3 Bft) S-SW 207 0 min 0,000 mm 0,0 UV-I 0 W/m 4,3 C 0,5 C 17,7 km/h (3 Bft) 100,00 %
19.11.2016 19:22 5,8 C 90 % 1015,5 hPa 0,0 l/m 17,6 km/h (3 Bft) W-SW 255 0 min 0,000 mm 0,0 UV-I 0 W/m 4,3 C -1,2 C 27,4 km/h (4 Bft) 98,46 %
19.11.2016 19:24 5,8 C 90 % 1015,5 hPa 0,0 l/m 19,1 km/h (3 Bft) W-SW 250 0 min 0,000 mm 0,0 UV-I 0 W/m 4,3 C -1,8 C 29,0 km/h (5 Bft) 100,00 %
19.11.2016 19:26 5,8 C 90 % 1015,4 hPa 0,0 l/m 14,6 km/h (3 Bft) W-SW 244 0 min 0,000 mm 0,0 UV-I 0 W/m 4,3 C 0,2 C 22,5 km/h (4 Bft) 100,00 %
19.11.2016 19:28 5,8 C 90 % 1015,3 hPa 0,0 l/m 19,0 km/h (3 Bft) W 275 0 min 0,000 mm 0,0 UV-I 0 W/m 4,3 C -1,7 C 30,6 km/h (5 Bft) 98,44 %
19.11.2016 19:30 5,8 C 89 % 1015,1 hPa 0,0 l/m 20,0 km/h (4 Bft) SW 231 0 min 0,000 mm 0,0 UV-I 0 W/m 4,1 C -2,1 C 27,4 km/h (4 Bft) 100,00 %
19.11.2016 19:32 5,8 C 89 % 1015,1 hPa 0,0 l/m 16,5 km/h (3 Bft) W-SW 246 0 min 0,000 mm 0,0 UV-I 0 W/m 4,1 C -0,7 C 27,4 km/h (4 Bft) 100,00 %
19.11.2016 19:34 5,8 C 89 % 1015,0 hPa 0,0 l/m 21,5 km/h (4 Bft) SW 234 0 min 0,000 mm 0,0 UV-I 0 W/m 4,1 C -2,7 C 33,8 km/h (5 Bft) 97,73 %
19.11.2016 19:36 5,8 C 89 % 1015,2 hPa 0,0 l/m 17,8 km/h (3 Bft) S-SW 213 0 min 0,000 mm 0,0 UV-I 0 W/m 4,1 C -1,2 C 27,4 km/h (4 Bft) 100,00 %
19.11.2016 19:38 5,8 C 89 % 1015,3 hPa 0,0 l/m 18,3 km/h (3 Bft) W-SW 246 0 min 0,000 mm 0,0 UV-I 0 W/m 4,1 C -1,5 C 25,7 km/h (4 Bft) 100,00 %
19.11.2016 19:40 5,8 C 89 % 1015,4 hPa 0,0 l/m 18,1 km/h (3 Bft) W-SW 237 0 min 0,000 mm 0,0 UV-I 0 W/m 4,1 C -1,4 C 29,0 km/h (5 Bft) 100,00 %
19.11.2016 19:42 5,8 C 89 % 1015,5 hPa 0,0 l/m 16,1 km/h (3 Bft) SW 231 0 min 0,000 mm 0,0 UV-I 0 W/m 4,1 C -0,5 C 24,1 km/h (4 Bft) 97,87 %
19.11.2016 19:44 5,8 C 89 % 1015,6 hPa 0,0 l/m 18,8 km/h (3 Bft) W-SW 252 0 min 0,000 mm 0,0 UV-I 0 W/m 4,1 C -1,7 C 27,4 km/h (4 Bft) 95,83 %
19.11.2016 19:46 5,8 C 89 % 1015,7 hPa 0,0 l/m 18,1 km/h (3 Bft) SW 221 0 min 0,000 mm 0,0 UV-I 0 W/m 4,1 C -1,4 C 25,7 km/h (4 Bft) 100,00 %
19.11.2016 19:48 5,8 C 89 % 1015,7 hPa 0,0 l/m 17,0 km/h (3 Bft) W-SW 254 0 min 0,000 mm 0,0 UV-I 0 W/m 4,1 C -0,9 C 25,7 km/h (4 Bft) 98,11 %
19.11.2016 19:50 5,8 C 89 % 1015,8 hPa 0,0 l/m 17,5 km/h (3 Bft) SW 234 0 min 0,000 mm 0,0 UV-I 0 W/m 4,1 C -1,1 C 30,6 km/h (5 Bft) 100,00 %
19.11.2016 19:52 5,8 C 89 % 1015,7 hPa 0,0 l/m 15,8 km/h (3 Bft) W-SW 238 0 min 0,000 mm 0,0 UV-I 0 W/m 4,1 C -0,3 C 20,9 km/h (4 Bft) 100,00 %
19.11.2016 19:54 5,8 C 89 % 1015,6 hPa 0,0 l/m 17,6 km/h (3 Bft) W 263 0 min 0,000 mm 0,0 UV-I 0 W/m 4,1 C -1,2 C 22,5 km/h (4 Bft) 100,00 %
19.11.2016 19:56 5,8 C 89 % 1015,6 hPa 0,0 l/m 19,0 km/h (3 Bft) W-SW 238 0 min 0,000 mm 0,0 UV-I 0 W/m 4,1 C -1,7 C 27,4 km/h (4 Bft) 100,00 %
19.11.2016 19:58 5,7 C 89 % 1015,6 hPa 0,0 l/m 15,3 km/h (3 Bft) SW 229 0 min 0,000 mm 0,0 UV-I 0 W/m 4,0 C -0,2 C 22,5 km/h (4 Bft) 100,00 %
19.11.2016 20:00 5,7 C 89 % 1015,7 hPa 0,0 l/m 17,8 km/h (3 Bft) W-SW 257 0 min 0,000 mm 0,0 UV-I 0 W/m 4,0 C -1,4 C 29,0 km/h (5 Bft) 100,00 %
19.11.2016 20:02 5,7 C 89 % 1015,6 hPa 0,0 l/m 17,7 km/h (3 Bft) SW 232 0 min 0,026 mm 0,0 UV-I 0 W/m 4,0 C -1,3 C 27,4 km/h (4 Bft) 100,00 %
19.11.2016 20:04 5,7 C 89 % 1015,6 hPa 0,0 l/m 22,1 km/h (4 Bft) W-SW 240 0 min 0,000 mm 0,0 UV-I 0 W/m 4,0 C -3,0 C 30,6 km/h (5 Bft) 100,00 %
19.11.2016 20:06 5,7 C 88 % 1015,5 hPa 0,0 l/m 18,1 km/h (3 Bft) W-SW 246 0 min 0,000 mm 0,0 UV-I 0 W/m 3,9 C -1,5 C 29,0 km/h (5 Bft) 100,00 %
19.11.2016 20:08 5,8 C 88 % 1015,5 hPa 0,0 l/m 16,6 km/h (3 Bft) W 260 0 min 0,000 mm 0,0 UV-I 0 W/m 4,0 C -0,7 C 22,5 km/h (4 Bft) 100,00 %
19.11.2016 20:10 5,8 C 88 % 1015,6 hPa 0,0 l/m 14,1 km/h (3 Bft) SW 229 0 min 0,000 mm 0,0 UV-I 0 W/m 4,0 C 0,5 C 19,3 km/h (3 Bft) 100,00 %
19.11.2016 20:12 5,8 C 88 % 1015,7 hPa 0,0 l/m 13,9 km/h (3 Bft) W-SW 240 0 min 0,000 mm 0,0 UV-I 0 W/m 4,0 C 0,6 C 19,3 km/h (3 Bft) 100,00 %
19.11.2016 20:14 5,8 C 88 % 1015,8 hPa 0,0 l/m 13,5 km/h (3 Bft) W-SW 255 0 min 0,000 mm 0,0 UV-I 0 W/m 4,0 C 0,8 C 20,9 km/h (4 Bft) 98,21 %
19.11.2016 20:16 5,8 C 88 % 1015,8 hPa 0,0 l/m 14,6 km/h (3 Bft) W-SW 251 0 min 0,000 mm 0,0 UV-I 0 W/m 4,0 C 0,2 C 22,5 km/h (4 Bft) 97,62 %
19.11.2016 20:18 5,7 C 88 % 1015,7 hPa 0,0 l/m 14,4 km/h (3 Bft) W-SW 242 0 min 0,000 mm 0,0 UV-I 0 W/m 3,9 C 0,2 C 19,3 km/h (3 Bft) 96,15 %
19.11.2016 20:20 5,7 C 88 % 1015,8 hPa 0,0 l/m 13,7 km/h (3 Bft) SW 227 0 min 0,000 mm 0,0 UV-I 0 W/m 3,9 C 0,6 C 24,1 km/h (4 Bft) 100,00 %
19.11.2016 20:22 5,7 C 88 % 1015,8 hPa 0,0 l/m 12,8 km/h (3 Bft) W-SW 247 0 min 0,000 mm 0,0 UV-I 0 W/m 3,9 C 1,1 C 17,7 km/h (3 Bft) 97,56 %
19.11.2016 20:24 5,7 C 88 % 1015,9 hPa 0,0 l/m 13,9 km/h (3 Bft) W 263 0 min 0,000 mm 0,0 UV-I 0 W/m 3,9 C 0,5 C 22,5 km/h (4 Bft) 94,92 %
19.11.2016 20:26 5,7 C 88 % 1015,8 hPa 0,0 l/m 15,7 km/h (3 Bft) W-SW 239 0 min 0,000 mm 0,0 UV-I 0 W/m 3,9 C -0,4 C 20,9 km/h (4 Bft) 97,87 %
19.11.2016 20:28 5,7 C 88 % 1015,8 hPa 0,0 l/m 15,0 km/h (3 Bft) W-SW 250 0 min 0,000 mm 0,0 UV-I 0 W/m 3,9 C -0,1 C 20,9 km/h (4 Bft) 97,73 %
19.11.2016 20:30 5,7 C 87 % 1015,8 hPa 0,0 l/m 12,6 km/h (3 Bft) SW 229 0 min 0,000 mm 0,0 UV-I 0 W/m 3,7 C 1,2 C 17,7 km/h (3 Bft) 96,15 %
19.11.2016 20:32 5,7 C 87 % 1015,7 hPa 0,0 l/m 8,2 km/h (2 Bft) W-SW 253 0 min 0,000 mm 0,0 UV-I 0 W/m 3,7 C 4,2 C 11,3 km/h (2 Bft) 98,46 %
19.11.2016 20:34 5,7 C 87 % 1015,6 hPa 0,0 l/m 9,1 km/h (2 Bft) SW 229 0 min 0,000 mm 0,0 UV-I 0 W/m 3,7 C 3,5 C 16,1 km/h (3 Bft) 95,45 %
19.11.2016 20:36 5,7 C 87 % 1015,6 hPa 0,0 l/m 5,8 km/h (2 Bft) W-SW 252 0 min 0,000 mm 0,0 UV-I 0 W/m 3,7 C 5,7 C 9,7 km/h (2 Bft) 94,34 %
19.11.2016 20:38 5,7 C 87 % 1015,8 hPa 0,0 l/m 7,9 km/h (2 Bft) SW 230 0 min 0,000 mm 0,0 UV-I 0 W/m 3,7 C 4,4 C 12,9 km/h (3 Bft) 97,73 %
19.11.2016 20:40 5,7 C 87 % 1015,9 hPa 0,0 l/m 6,5 km/h (2 Bft) W-SW 240 0 min 0,000 mm 0,0 UV-I 0 W/m 3,7 C 5,6 C 11,3 km/h (2 Bft) 98,00 %
19.11.2016 20:42 5,6 C 88 % 1015,9 hPa 0,0 l/m 6,6 km/h (2 Bft) SW 221 0 min 0,000 mm 0,0 UV-I 0 W/m 3,8 C 5,4 C 11,3 km/h (2 Bft) 98,00 %
19.11.2016 20:44 5,6 C 88 % 1015,8 hPa 0,0 l/m 5,3 km/h (1 Bft) W-SW 252 0 min 0,000 mm 0,0 UV-I 0 W/m 3,8 C 5,6 C 8,0 km/h (2 Bft) 97,37 %
19.11.2016 20:46 5,6 C 88 % 1015,8 hPa 0,0 l/m 4,7 km/h (1 Bft) SW 236 0 min 0,000 mm 0,0 UV-I 0 W/m 3,8 C 5,6 C 9,7 km/h (2 Bft) 97,56 %
19.11.2016 20:48 5,5 C 88 % 1015,7 hPa 0,0 l/m 7,2 km/h (2 Bft) SW 228 0 min 0,000 mm 0,0 UV-I 0 W/m 3,7 C 4,8 C 11,3 km/h (2 Bft) 96,55 %
19.11.2016 20:50 5,5 C 88 % 1015,8 hPa 0,0 l/m 4,5 km/h (1 Bft) SW 224 0 min 0,000 mm 0,0 UV-I 0 W/m 3,7 C 5,5 C 8,0 km/h (2 Bft) 100,00 %
19.11.2016 20:52 5,5 C 88 % 1015,8 hPa 0,0 l/m 5,1 km/h (1 Bft) SW 224 0 min 0,000 mm 0,0 UV-I 0 W/m 3,7 C 5,5 C 9,7 km/h (2 Bft) 98,00 %
19.11.2016 20:54 5,4 C 88 % 1015,8 hPa 0,0 l/m 2,9 km/h (1 Bft) SW 223 0 min 0,000 mm 0,0 UV-I 0 W/m 3,6 C 5,4 C 6,4 km/h (2 Bft) 100,00 %
19.11.2016 20:56 5,4 C 89 % 1015,7 hPa 0,0 l/m 2,8 km/h (1 Bft) SW 219 0 min 0,000 mm 0,0 UV-I 0 W/m 3,7 C 5,4 C 6,4 km/h (2 Bft) 100,00 %
19.11.2016 20:58 5,4 C 89 % 1015,7 hPa 0,0 l/m 2,1 km/h (1 Bft) SW 219 0 min 0,000 mm 0,0 UV-I 0 W/m 3,7 C 5,4 C 4,8 km/h (1 Bft) 97,87 %
19.11.2016 21:00 5,4 C 89 % 1015,7 hPa 0,0 l/m 2,8 km/h (1 Bft) SW 217 0 min 0,000 mm 0,0 UV-I 0 W/m 3,7 C 5,4 C 4,8 km/h (1 Bft) 100,00 %
19.11.2016 21:02 5,3 C 89 % 1015,7 hPa 0,0 l/m 3,5 km/h (1 Bft) SW 217 0 min 0,025 mm 0,0 UV-I 0 W/m 3,6 C 5,3 C 6,4 km/h (2 Bft) 100,00 %
19.11.2016 21:04 5,3 C 89 % 1015,7 hPa 0,0 l/m 0,5 km/h (0 Bft) SW 217 0 min 0,000 mm 0,0 UV-I 0 W/m 3,6 C 5,3 C 3,2 km/h (1 Bft) 100,00 %
19.11.2016 21:06 5,3 C 89 % 1015,6 hPa 0,0 l/m 1,5 km/h (1 Bft) SW 217 0 min 0,000 mm 0,0 UV-I 0 W/m 3,6 C 5,3 C 3,2 km/h (1 Bft) 100,00 %
19.11.2016 21:08 5,3 C 89 % 1015,5 hPa 0,0 l/m 0,9 km/h (0 Bft) SW 217 0 min 0,000 mm 0,0 UV-I 0 W/m 3,6 C 5,3 C 3,2 km/h (1 Bft) 100,00 %
19.11.2016 21:10 5,2 C 89 % 1015,5 hPa 0,0 l/m 1,0 km/h (0 Bft) SW 217 0 min 0,000 mm 0,0 UV-I 0 W/m 3,5 C 5,2 C 1,6 km/h (1 Bft) 100,00 %
19.11.2016 21:12 5,2 C 89 % 1015,4 hPa 0,0 l/m 0,6 km/h (0 Bft) SW 217 0 min 0,000 mm 0,0 UV-I 0 W/m 3,5 C 5,2 C 1,6 km/h (1 Bft) 100,00 %
19.11.2016 21:14 5,2 C 89 % 1015,5 hPa 0,0 l/m 1,5 km/h (1 Bft) SW 217 0 min 0,000 mm 0,0 UV-I 0 W/m 3,5 C 5,2 C 4,8 km/h (1 Bft) 100,00 %
19.11.2016 21:16 5,1 C 89 % 1015,4 hPa 0,0 l/m 2,9 km/h (1 Bft) SW 217 0 min 0,000 mm 0,0 UV-I 0 W/m 3,4 C 5,1 C 3,2 km/h (1 Bft) 100,00 %
19.11.2016 21:18 4,9 C 90 % 1015,4 hPa 0,0 l/m 2,8 km/h (1 Bft) S-SW 211 0 min 0,000 mm 0,0 UV-I 0 W/m 3,4 C 4,9 C 4,8 km/h (1 Bft) 97,56 %
19.11.2016 21:20 4,8 C 91 % 1015,4 hPa 0,0 l/m 1,7 km/h (1 Bft) S-SW 211 0 min 0,000 mm 0,0 UV-I 0 W/m 3,5 C 4,8 C 3,2 km/h (1 Bft) 100,00 %
19.11.2016 21:22 4,7 C 91 % 1015,4 hPa 0,0 l/m 1,9 km/h (1 Bft) S-SW 211 0 min 0,000 mm 0,0 UV-I 0 W/m 3,4 C 4,7 C 3,2 km/h (1 Bft) 100,00 %
19.11.2016 21:24 4,7 C 91 % 1015,4 hPa 0,0 l/m 1,5 km/h (1 Bft) S-SW 211 0 min 0,000 mm 0,0 UV-I 0 W/m 3,4 C 4,7 C 3,2 km/h (1 Bft) 100,00 %
19.11.2016 21:26 4,7 C 91 % 1015,4 hPa 0,0 l/m 1,5 km/h (1 Bft) S-SW 211 0 min 0,000 mm 0,0 UV-I 0 W/m 3,4 C 4,7 C 1,6 km/h (1 Bft) 100,00 %
19.11.2016 21:28 4,7 C 91 % 1015,3 hPa 0,0 l/m 1,8 km/h (1 Bft) S-SW 211 0 min 0,000 mm 0,0 UV-I 0 W/m 3,4 C 4,7 C 3,2 km/h (1 Bft) 100,00 %
19.11.2016 21:30 4,6 C 91 % 1015,3 hPa 0,0 l/m 2,6 km/h (1 Bft) S-SW 211 0 min 0,000 mm 0,0 UV-I 0 W/m 3,3 C 4,6 C 3,2 km/h (1 Bft) 100,00 %
19.11.2016 21:32 4,4 C 92 % 1015,2 hPa 0,0 l/m 1,0 km/h (0 Bft) S-SW 211 0 min 0,000 mm 0,0 UV-I 0 W/m 3,2 C 4,4 C 1,6 km/h (1 Bft) 100,00 %
19.11.2016 21:34 4,3 C 93 % 1015,3 hPa 0,0 l/m 0,0 km/h (0 Bft) S-SW 211 0 min 0,000 mm 0,0 UV-I 0 W/m 3,3 C 4,3 C 0,0 km/h (0 Bft) 100,00 %
19.11.2016 21:36 4,3 C 93 % 1015,3 hPa 0,0 l/m 0,0 km/h (0 Bft) S-SW 211 0 min 0,000 mm 0,0 UV-I 0 W/m 3,3 C 4,3 C 0,0 km/h (0 Bft) 100,00 %
19.11.2016 21:38 4,3 C 93 % 1015,3 hPa 0,0 l/m 0,0 km/h (0 Bft) S-SW 211 0 min 0,000 mm 0,0 UV-I 0 W/m 3,3 C 4,3 C 0,0 km/h (0 Bft) 100,00 %
19.11.2016 21:40 4,3 C 93 % 1015,2 hPa 0,0 l/m 0,5 km/h (0 Bft) S-SW 211 0 min 0,000 mm 0,0 UV-I 0 W/m 3,3 C 4,3 C 3,2 km/h (1 Bft) 98,00 %
19.11.2016 21:42 4,2 C 93 % 1015,2 hPa 0,0 l/m 3,0 km/h (1 Bft) S-SW 211 0 min 0,000 mm 0,0 UV-I 0 W/m 3,2 C 4,2 C 4,8 km/h (1 Bft) 100,00 %
19.11.2016 21:44 4,3 C 93 % 1015,2 hPa 0,0 l/m 3,3 km/h (1 Bft) S-SW 211 0 min 0,000 mm 0,0 UV-I 0 W/m 3,3 C 4,3 C 4,8 km/h (1 Bft) 100,00 %
19.11.2016 21:46 4,3 C 93 % 1015,2 hPa 0,0 l/m 3,4 km/h (1 Bft) S-SW 211 0 min 0,000 mm 0,0 UV-I 0 W/m 3,3 C 4,3 C 4,8 km/h (1 Bft) 97,50 %
19.11.2016 21:48 4,4 C 93 % 1015,2 hPa 0,0 l/m 3,1 km/h (1 Bft) S-SW 211 0 min 0,000 mm 0,0 UV-I 0 W/m 3,4 C 4,4 C 3,2 km/h (1 Bft) 100,00 %
19.11.2016 21:50 4,4 C 93 % 1015,2 hPa 0,0 l/m 3,2 km/h (1 Bft) S-SW 211 0 min 0,000 mm 0,0 UV-I 0 W/m 3,4 C 4,4 C 4,8 km/h (1 Bft) 100,00 %
19.11.2016 21:52 4,4 C 93 % 1015,3 hPa 0,0 l/m 4,3 km/h (1 Bft) O-NO 74 0 min 0,000 mm 0,0 UV-I 0 W/m 3,4 C 4,4 C 6,4 km/h (2 Bft) 100,00 %
19.11.2016 21:54 4,6 C 93 % 1015,3 hPa 0,0 l/m 4,5 km/h (1 Bft) O-NO 72 0 min 0,000 mm 0,0 UV-I 0 W/m 3,6 C 4,6 C 6,4 km/h (2 Bft) 100,00 %
19.11.2016 21:56 4,6 C 92 % 1015,3 hPa 0,0 l/m 4,5 km/h (1 Bft) O-NO 69 0 min 0,000 mm 0,0 UV-I 0 W/m 3,4 C 4,6 C 6,4 km/h (2 Bft) 100,00 %
19.11.2016 21:58 4,6 C 92 % 1015,3 hPa 0,0 l/m 4,3 km/h (1 Bft) O-NO 69 0 min 0,000 mm 0,0 UV-I 0 W/m 3,4 C 4,6 C 4,8 km/h (1 Bft) 100,00 %
19.11.2016 22:00 4,6 C 92 % 1015,3 hPa 0,0 l/m 4,1 km/h (1 Bft) O-NO 60 0 min 0,000 mm 0,0 UV-I 0 W/m 3,4 C 4,6 C 4,8 km/h (1 Bft) 100,00 %
19.11.2016 22:02 4,5 C 92 % 1015,3 hPa 0,0 l/m 3,7 km/h (1 Bft) NO 55 0 min 0,000 mm 0,0 UV-I 0 W/m 3,3 C 4,5 C 4,8 km/h (1 Bft) 100,00 %
19.11.2016 22:04 4,4 C 92 % 1015,3 hPa 0,0 l/m 3,6 km/h (1 Bft) NO 49 0 min 0,000 mm 0,0 UV-I 0 W/m 3,2 C 4,4 C 4,8 km/h (1 Bft) 97,37 %
19.11.2016 22:06 4,4 C 92 % 1015,3 hPa 0,0 l/m 4,3 km/h (1 Bft) N-NO 29 0 min 0,000 mm 0,0 UV-I 0 W/m 3,2 C 4,4 C 6,4 km/h (2 Bft) 100,00 %
19.11.2016 22:08 4,3 C 92 % 1015,3 hPa 0,0 l/m 1,6 km/h (1 Bft) N-NO 25 0 min 0,000 mm 0,0 UV-I 0 W/m 3,1 C 4,3 C 4,8 km/h (1 Bft) 95,12 %
19.11.2016 22:10 4,2 C 92 % 1015,3 hPa 0,0 l/m 1,2 km/h (1 Bft) N 10 0 min 0,000 mm 0,0 UV-I 0 W/m 3,0 C 4,2 C 3,2 km/h (1 Bft) 100,00 %
19.11.2016 22:12 4,1 C 92 % 1015,3 hPa 0,0 l/m 0,7 km/h (0 Bft) NO 36 0 min 0,000 mm 0,0 UV-I 0 W/m 2,9 C 4,1 C 1,6 km/h (1 Bft) 100,00 %
19.11.2016 22:14 4,1 C 93 % 1015,2 hPa 0,0 l/m 0,3 km/h (0 Bft) NO 34 0 min 0,000 mm 0,0 UV-I 0 W/m 3,1 C 4,1 C 3,2 km/h (1 Bft) 100,00 %
19.11.2016 22:16 4,0 C 93 % 1015,2 hPa 0,0 l/m 0,3 km/h (0 Bft) NO 34 0 min 0,000 mm 0,0 UV-I 0 W/m 3,0 C 4,0 C 1,6 km/h (1 Bft) 100,00 %
19.11.2016 22:18 4,0 C 93 % 1015,2 hPa 0,0 l/m 0,2 km/h (0 Bft) N-NO 30 0 min 0,000 mm 0,0 UV-I 0 W/m 3,0 C 4,0 C 1,6 km/h (1 Bft) 100,00 %
19.11.2016 22:20 4,0 C 93 % 1015,2 hPa 0,0 l/m 1,3 km/h (1 Bft) N-NO 30 0 min 0,000 mm 0,0 UV-I 0 W/m 3,0 C 4,0 C 3,2 km/h (1 Bft) 100,00 %
19.11.2016 22:22 4,0 C 93 % 1015,2 hPa 0,0 l/m 1,4 km/h (1 Bft) N-NO 31 0 min 0,000 mm 0,0 UV-I 0 W/m 3,0 C 4,0 C 4,8 km/h (1 Bft) 100,00 %
19.11.2016 22:24 4,0 C 93 % 1015,1 hPa 0,0 l/m 1,9 km/h (1 Bft) N-NO 30 0 min 0,000 mm 0,0 UV-I 0 W/m 3,0 C 4,0 C 4,8 km/h (1 Bft) 96,00 %
19.11.2016 22:26 4,0 C 93 % 1015,0 hPa 0,0 l/m 5,3 km/h (1 Bft) NO 36 0 min 0,000 mm 0,0 UV-I 0 W/m 3,0 C 4,0 C 6,4 km/h (2 Bft) 98,00 %
19.11.2016 22:28 4,1 C 93 % 1015,1 hPa 0,0 l/m 5,4 km/h (1 Bft) NO 44 0 min 0,000 mm 0,0 UV-I 0 W/m 3,1 C 4,1 C 6,4 km/h (2 Bft) 97,56 %
19.11.2016 22:30 4,1 C 93 % 1015,0 hPa 0,0 l/m 5,5 km/h (1 Bft) NO 55 0 min 0,000 mm 0,0 UV-I 0 W/m 3,1 C 4,1 C 6,4 km/h (2 Bft) 97,87 %
19.11.2016 22:32 4,1 C 93 % 1015,1 hPa 0,0 l/m 7,0 km/h (2 Bft) O-NO 76 0 min 0,000 mm 0,0 UV-I 0 W/m 3,1 C 3,6 C 8,0 km/h (2 Bft) 98,11 %
19.11.2016 22:34 4,1 C 93 % 1015,1 hPa 0,0 l/m 7,9 km/h (2 Bft) O-NO 63 0 min 0,000 mm 0,0 UV-I 0 W/m 3,1 C 2,7 C 11,3 km/h (2 Bft) 97,73 %
19.11.2016 22:36 4,1 C 93 % 1015,1 hPa 0,0 l/m 5,8 km/h (2 Bft) NO 51 0 min 0,000 mm 0,0 UV-I 0 W/m 3,1 C 4,1 C 8,0 km/h (2 Bft) 96,00 %
19.11.2016 22:38 4,1 C 93 % 1015,1 hPa 0,0 l/m 4,8 km/h (1 Bft) NO 51 0 min 0,000 mm 0,0 UV-I 0 W/m 3,1 C 4,1 C 6,4 km/h (2 Bft) 91,67 %
19.11.2016 22:42 4,0 C 93 % 1015,0 hPa 0,0 l/m 5,6 km/h (1 Bft) O 80 0 min 0,000 mm 0,0 UV-I 0 W/m 3,0 C 4,0 C 6,4 km/h (2 Bft) 97,62 %
19.11.2016 22:44 3,9 C 93 % 1015,0 hPa 0,0 l/m 3,4 km/h (1 Bft) O 81 0 min 0,000 mm 0,0 UV-I 0 W/m 2,9 C 3,9 C 6,4 km/h (2 Bft) 96,00 %
19.11.2016 22:45 3,8 C 93 % 1015,0 hPa 0,0 l/m 3,2 km/h (1 Bft) O 90 0 min 0,000 mm 0,0 UV-I 0 W/m 2,8 C 3,8 C 8,0 km/h (2 Bft) 100,00 %
19.11.2016 22:50 3,5 C 94 % 1015,0 hPa 0,0 l/m 1,6 km/h (1 Bft) O 90 0 min 0,000 mm 0,0 UV-I 0 W/m 2,6 C 3,5 C 4,8 km/h (1 Bft) 100,00 %
19.11.2016 22:55 3,5 C 95 % 1014,9 hPa 0,0 l/m 6,4 km/h (2 Bft) O-NO 67 0 min 0,000 mm 0,0 UV-I 0 W/m 2,8 C 3,5 C 9,7 km/h (2 Bft) 99,12 %
19.11.2016 23:00 3,7 C 95 % 1014,9 hPa 0,0 l/m 6,4 km/h (2 Bft) O-NO 67 0 min 0,000 mm 0,0 UV-I 0 W/m 3,0 C 3,7 C 11,3 km/h (2 Bft) 98,25 %
19.11.2016 23:05 3,8 C 95 % 1014,7 hPa 0,0 l/m 8,0 km/h (2 Bft) O 90 0 min 0,000 mm 0,0 UV-I 0 W/m 3,1 C 2,3 C 12,9 km/h (3 Bft) 97,37 %
19.11.2016 23:10 3,7 C 95 % 1014,6 hPa 0,0 l/m 6,4 km/h (2 Bft) O 90 0 min 0,000 mm 0,0 UV-I 0 W/m 3,0 C 3,7 C 11,3 km/h (2 Bft) 99,12 %
19.11.2016 23:15 3,8 C 95 % 1014,6 hPa 0,0 l/m 9,7 km/h (2 Bft) O-NO 67 0 min 0,000 mm 0,0 UV-I 0 W/m 3,1 C 1,0 C 16,1 km/h (3 Bft) 97,37 %
19.11.2016 23:20 3,8 C 95 % 1014,7 hPa 0,0 l/m 9,7 km/h (2 Bft) O-NO 67 0 min 0,000 mm 0,0 UV-I 0 W/m 3,1 C 1,0 C 14,5 km/h (3 Bft) 97,37 %
19.11.2016 23:25 3,7 C 95 % 1014,6 hPa 0,0 l/m 8,0 km/h (2 Bft) O-NO 67 0 min 0,000 mm 0,0 UV-I 0 W/m 3,0 C 2,2 C 12,9 km/h (3 Bft) 96,49 %
19.11.2016 23:30 3,7 C 95 % 1014,5 hPa 0,0 l/m 9,7 km/h (2 Bft) O 90 0 min 0,000 mm 0,0 UV-I 0 W/m 3,0 C 0,9 C 14,5 km/h (3 Bft) 98,25 %
19.11.2016 23:35 3,7 C 95 % 1014,5 hPa 0,0 l/m 9,7 km/h (2 Bft) O-NO 67 0 min 0,000 mm 0,0 UV-I 0 W/m 3,0 C 0,9 C 14,5 km/h (3 Bft) 98,25 %
19.11.2016 23:40 3,7 C 95 % 1014,5 hPa 0,0 l/m 9,7 km/h (2 Bft) O-NO 67 0 min 0,000 mm 0,0 UV-I 0 W/m 3,0 C 0,9 C 17,7 km/h (3 Bft) 98,25 %
19.11.2016 23:45 3,7 C 95 % 1014,4 hPa 0,0 l/m 8,0 km/h (2 Bft) O-NO 67 0 min 0,000 mm 0,0 UV-I 0 W/m 3,0 C 2,2 C 12,9 km/h (3 Bft) 100,00 %
19.11.2016 23:50 3,5 C 95 % 1014,4 hPa 0,0 l/m 6,4 km/h (2 Bft) O-NO 67 0 min 0,000 mm 0,0 UV-I 0 W/m 2,8 C 3,5 C 12,9 km/h (3 Bft) 100,00 %
19.11.2016 23:55 3,3 C 95 % 1014,3 hPa 0,0 l/m 6,4 km/h (2 Bft) O-NO 67 0 min 0,000 mm 0,0 UV-I 0 W/m 2,6 C 3,3 C 9,7 km/h (2 Bft) 99,12 %
_ Min-Zeit 23:55 17:02 12:14 - 05:58 - - - - - - 23:55 18:06 05:58 04:00
Minimum _ 3,3 C 87 % 1007,9 hPa - 0,0 km/h (0 Bft) - - - - - - 2,6 C -3,1 C 0,0 km/h (0 Bft) 90,57 %
_ Max-Zeit 16:12 00:00 20:24 16:08 18:06 - - 07:38 10:00 00:00 08:58 14:08 14:26 17:14 00:02
Maximum _ 7,6 C 99 % 1015,9 hPa 0,2 l/m 25,7 km/h
W-SW (4 Bft)
- - 2 min 0,026 mm 0,0 UV-I 112 W/m 6,9 C 7,3 C 41,8 km/h
SW (6 Bft)
100,00 %
Durchschnitt _ 5,5 C 96 % 1012,0 hPa #0,4 l/m 7,4 km/h (2 Bft) SW - #10 min. #0,330 mm 0,0 UV-I 44 W/m 4,9 C 3,7 C 11,5 km/h (2 Bft) 98,78 %